DAL173 KSLC-RKSI

Flight info

Callsign DAL173
Flight time 12h 12m
Altitude 36000
Route CGULL1 TWF DCT BOI DCT SEA DCT TOU DCT SEFIX DCT 49N130W 51N140W 53N150W/N0490F380 DCT CDB DCT CAMBO DCT ALDOZ DCT POOFF DCT NATES/N0498F390 R220 NUZAN/N0496F400 R220 NOGAL/N0484F410 R220 NODAN/N0485F400 R217 GTC Y142 SAMON Y14 SUGNO Y16 SAPRA G585 GUKDO GUKDO2E
Aircraft A359/H-SDE2E3GHIJ3J4J5LM1ORWXY/LB1D1

Departure

Time 2026-05-07 17:49
Airport Salt Lake City International Airport (KSLC)

Arrival

Time 2026-05-08 06:01
Airport Incheon International Airport (RKSI)
Time Latitude Longitude Altitude Speed Heading
2026-05-07 17:17 40.78625 -111.98609 4237 ft 0 kts 175°
2026-05-07 17:25 40.78627 -111.98609 4237 ft 2 kts 175°
2026-05-07 17:25 40.78652 -111.98609 4235 ft 4 kts 192°
2026-05-07 17:26 40.78677 -111.98596 4234 ft 4 kts 218°
2026-05-07 17:26 40.78694 -111.98571 4234 ft 4 kts 245°
2026-05-07 17:26 40.78702 -111.98537 4237 ft 4 kts 263°
2026-05-07 17:26 40.78703 -111.98523 4236 ft 0 kts 265°
2026-05-07 17:37 40.78703 -111.98526 4235 ft 2 kts 265°
2026-05-07 17:37 40.78699 -111.98593 4235 ft 13 kts 266°
2026-05-07 17:37 40.78690 -111.98736 4237 ft 16 kts 265°
2026-05-07 17:38 40.78680 -111.98878 4237 ft 15 kts 265°
2026-05-07 17:38 40.78671 -111.99013 4237 ft 14 kts 265°
2026-05-07 17:38 40.78663 -111.99143 4237 ft 14 kts 265°
2026-05-07 17:38 40.78655 -111.99265 4238 ft 13 kts 265°
2026-05-07 17:39 40.78676 -111.99363 4238 ft 10 kts 328°
2026-05-07 17:39 40.78745 -111.99378 4238 ft 10 kts 355°
2026-05-07 17:39 40.78812 -111.99387 4238 ft 10 kts 355°
2026-05-07 17:39 40.78879 -111.99395 4238 ft 10 kts 355°
2026-05-07 17:40 40.78945 -111.99402 4237 ft 9 kts 355°
2026-05-07 17:40 40.79010 -111.99409 4237 ft 9 kts 354°
2026-05-07 17:40 40.79073 -111.99413 4237 ft 9 kts 11°
2026-05-07 17:40 40.79100 -111.99360 4237 ft 7 kts 80°
2026-05-07 17:41 40.79105 -111.99292 4237 ft 8 kts 84°
2026-05-07 17:41 40.79111 -111.99210 4237 ft 10 kts 85°
2026-05-07 17:41 40.79117 -111.99113 4237 ft 11 kts 85°
2026-05-07 17:41 40.79125 -111.99003 4237 ft 13 kts 85°
2026-05-07 17:42 40.79133 -111.98879 4237 ft 14 kts 85°
2026-05-07 17:42 40.79142 -111.98745 4237 ft 15 kts 85°
2026-05-07 17:42 40.79151 -111.98604 4237 ft 16 kts 85°
2026-05-07 17:42 40.79162 -111.98451 4237 ft 17 kts 84°
2026-05-07 17:43 40.79173 -111.98292 4237 ft 18 kts 85°
2026-05-07 17:43 40.79184 -111.98124 4237 ft 19 kts 84°
2026-05-07 17:43 40.79196 -111.97950 4237 ft 19 kts 85°
2026-05-07 17:43 40.79261 -111.97832 4237 ft 16 kts
2026-05-07 17:44 40.79379 -111.97851 4237 ft 18 kts 354°
2026-05-07 17:44 40.79507 -111.97867 4237 ft 20 kts 354°
2026-05-07 17:44 40.79648 -111.97882 4237 ft 21 kts 355°
2026-05-07 17:44 40.79800 -111.97899 4237 ft 23 kts 355°
2026-05-07 17:45 40.79963 -111.97918 4237 ft 24 kts 355°
2026-05-07 17:45 40.80130 -111.97937 4237 ft 24 kts 355°
2026-05-07 17:45 40.80294 -111.97966 4237 ft 23 kts 345°
2026-05-07 17:45 40.80453 -111.98003 4237 ft 23 kts 356°
2026-05-07 17:46 40.80608 -111.98035 4237 ft 22 kts 345°
2026-05-07 17:46 40.80715 -111.98042 4237 ft 14 kts 32°
2026-05-07 17:46 40.80739 -111.97933 4237 ft 13 kts 86°
2026-05-07 17:46 40.80745 -111.97817 4236 ft 13 kts 86°
2026-05-07 17:47 40.80714 -111.97711 4235 ft 12 kts 132°
2026-05-07 17:47 40.80645 -111.97687 4236 ft 9 kts 175°
2026-05-07 17:47 40.80571 -111.97678 4237 ft 13 kts 175°
2026-05-07 17:47 40.80427 -111.97661 4239 ft 38 kts 175°
2026-05-07 17:48 40.79998 -111.97611 4238 ft 84 kts 174°
2026-05-07 17:48 40.79273 -111.97527 4237 ft 124 kts 174°
2026-05-07 17:48 40.78293 -111.97412 4261 ft 155 kts 174°
2026-05-07 17:48 40.77281 -111.97257 4790 ft 144 kts 172°
2026-05-07 17:49 40.76290 -111.97065 5229 ft 144 kts 173°
2026-05-07 17:49 40.75249 -111.96944 5357 ft 159 kts 185°
2026-05-07 17:49 40.74166 -111.97466 5420 ft 175 kts 216°
2026-05-07 17:49 40.73419 -111.98776 5633 ft 186 kts 247°
2026-05-07 17:50 40.73248 -112.00541 5879 ft 205 kts 273°
2026-05-07 17:50 40.73704 -112.02369 6137 ft 221 kts 294°
2026-05-07 17:50 40.74500 -112.04212 6329 ft 240 kts 299°
2026-05-07 17:50 40.75402 -112.06147 6532 ft 254 kts 300°
2026-05-07 17:51 40.76364 -112.08159 6728 ft 272 kts 301°
2026-05-07 17:51 40.77398 -112.10368 6873 ft 292 kts 300°
2026-05-07 17:51 40.78467 -112.12696 7388 ft 291 kts 298°
2026-05-07 17:51 40.79494 -112.14919 8452 ft 276 kts 300°
2026-05-07 17:52 40.80488 -112.17050 9409 ft 267 kts 300°
2026-05-07 17:52 40.81468 -112.19123 10147 ft 266 kts 301°
2026-05-07 17:52 40.82487 -112.21250 10429 ft 281 kts 301°
2026-05-07 17:52 40.83544 -112.23470 10673 ft 297 kts 301°
2026-05-07 17:53 40.84671 -112.25842 10935 ft 311 kts 301°
2026-05-07 17:53 40.85850 -112.28330 11182 ft 325 kts 301°
2026-05-07 17:53 40.87058 -112.30883 11426 ft 338 kts 301°
2026-05-07 17:53 40.88329 -112.33567 11655 ft 350 kts 301°
2026-05-07 17:54 40.89688 -112.36329 11894 ft 362 kts 306°
2026-05-07 17:54 40.91422 -112.38800 12297 ft 370 kts 319°
2026-05-07 17:54 40.93520 -112.40729 12798 ft 374 kts 327°
2026-05-07 17:54 40.95863 -112.42272 13313 ft 379 kts 335°
2026-05-07 17:55 40.98348 -112.43472 13819 ft 382 kts 339°
2026-05-07 17:55 41.00895 -112.44564 14304 ft 385 kts 340°
2026-05-07 17:55 41.03463 -112.45614 14810 ft 386 kts 340°
2026-05-07 17:55 41.06048 -112.46650 15264 ft 389 kts 340°
2026-05-07 17:56 41.08616 -112.47667 15739 ft 391 kts 340°
2026-05-07 17:56 41.11235 -112.48698 16248 ft 392 kts 341°
2026-05-07 17:56 41.13864 -112.49732 16755 ft 394 kts 341°
2026-05-07 17:56 41.16456 -112.50935 17247 ft 394 kts 333°
2026-05-07 17:57 41.18795 -112.52810 17771 ft 392 kts 322°
2026-05-07 17:57 41.20245 -112.54242 18091 ft 393 kts 321°
2026-05-07 17:57 41.23146 -112.57207 18686 ft 396 kts 321°
2026-05-07 17:57 41.25331 -112.59446 19114 ft 398 kts 321°
2026-05-07 17:58 41.27499 -112.61755 19553 ft 399 kts 317°
2026-05-07 17:58 41.29464 -112.64372 20004 ft 399 kts 313°
2026-05-07 17:58 41.31354 -112.67118 20437 ft 401 kts 312°
2026-05-07 17:58 41.33231 -112.69875 20880 ft 403 kts 312°
2026-05-07 17:59 41.35118 -112.72645 21352 ft 404 kts 312°
2026-05-07 17:59 41.37013 -112.75423 21796 ft 405 kts 312°
2026-05-07 17:59 41.39865 -112.79607 22390 ft 410 kts 313°
2026-05-07 17:59 41.43671 -112.85363 23216 ft 415 kts 311°
2026-05-07 18:00 41.47479 -112.91215 23980 ft 419 kts 311°
2026-05-07 18:00 41.51330 -112.97124 24740 ft 423 kts 311°
2026-05-07 18:00 41.57944 -113.07289 25965 ft 430 kts 311°
2026-05-07 18:00 41.65868 -113.19509 27280 ft 438 kts 311°
2026-05-07 18:01 41.73850 -113.31870 28521 ft 447 kts 311°
2026-05-07 18:01 41.82007 -113.44553 30015 ft 451 kts 310°
2026-05-07 18:01 41.87465 -113.53073 30757 ft 444 kts 311°
2026-05-07 18:01 41.98205 -113.69906 32489 ft 439 kts 311°
2026-05-07 18:02 42.12717 -113.92802 34428 ft 433 kts 311°
2026-05-07 18:02 42.15354 -113.96982 34703 ft 432 kts 311°
2026-05-07 18:02 42.19197 -114.03066 35053 ft 431 kts 311°
2026-05-07 18:03 42.23084 -114.09214 35342 ft 431 kts 311°
2026-05-07 18:03 42.26994 -114.15416 35569 ft 432 kts 311°
2026-05-07 18:03 42.30882 -114.21597 35918 ft 430 kts 311°
2026-05-07 18:04 42.39156 -114.34789 35991 ft 434 kts 311°
2026-05-07 18:04 42.46952 -114.47270 36101 ft 434 kts 311°
2026-05-07 18:04 42.54776 -114.59492 36080 ft 432 kts 312°
2026-05-07 18:05 42.70705 -114.84158 36007 ft 433 kts 311°
2026-05-07 18:05 42.86438 -115.08808 35998 ft 433 kts 311°
2026-05-07 18:06 42.94166 -115.20994 36007 ft 433 kts 311°
2026-05-07 18:06 42.98082 -115.27187 35996 ft 432 kts 311°
2026-05-07 18:07 43.02020 -115.33421 35990 ft 432 kts 311°
2026-05-07 18:07 43.05950 -115.39660 36003 ft 432 kts 311°
2026-05-07 18:08 43.09840 -115.45858 36013 ft 432 kts 311°
2026-05-07 18:08 43.13756 -115.52110 36022 ft 432 kts 311°
2026-05-07 18:09 43.17677 -115.58379 36031 ft 432 kts 311°
2026-05-07 18:09 43.21566 -115.64608 36032 ft 432 kts 311°
2026-05-07 18:10 43.25471 -115.70877 36029 ft 431 kts 310°
2026-05-07 18:10 43.29368 -115.77149 36029 ft 431 kts 310°
2026-05-07 18:11 43.33256 -115.83418 36020 ft 431 kts 310°
2026-05-07 18:11 43.37130 -115.89677 36021 ft 431 kts 310°
2026-05-07 18:12 43.41011 -115.95963 36039 ft 430 kts 310°
2026-05-07 18:12 43.44866 -116.02219 36056 ft 430 kts 310°
2026-05-07 18:13 43.48715 -116.08481 36070 ft 430 kts 310°
2026-05-07 18:13 43.52577 -116.14776 36083 ft 429 kts 310°
2026-05-07 18:14 43.56416 -116.21022 36081 ft 429 kts 311°
2026-05-07 18:14 43.60546 -116.26969 36035 ft 429 kts 314°
2026-05-07 18:15 43.64794 -116.32791 36044 ft 429 kts 314°
2026-05-07 18:15 43.69000 -116.38660 36055 ft 429 kts 314°
2026-05-07 18:16 43.73147 -116.44547 36060 ft 429 kts 314°
2026-05-07 18:16 43.77304 -116.50490 36058 ft 429 kts 313°
2026-05-07 18:17 43.81464 -116.56449 36058 ft 429 kts 313°
2026-05-07 18:17 43.85581 -116.62355 36054 ft 429 kts 313°
2026-05-07 18:18 43.89739 -116.68331 36037 ft 430 kts 313°
2026-05-07 18:18 43.93900 -116.74323 36050 ft 431 kts 313°
2026-05-07 18:19 43.98034 -116.80289 36051 ft 431 kts 313°
2026-05-07 18:19 44.02201 -116.86315 36068 ft 430 kts 313°
2026-05-07 18:20 44.06331 -116.92302 36060 ft 430 kts 313°
2026-05-07 18:20 44.10455 -116.98293 36067 ft 430 kts 313°
2026-05-07 18:21 44.14579 -117.04296 36059 ft 428 kts 313°
2026-05-07 18:21 44.18705 -117.10318 36053 ft 428 kts 313°
2026-05-07 18:22 44.22793 -117.16295 36048 ft 428 kts 313°
2026-05-07 18:22 44.26896 -117.22305 36036 ft 427 kts 313°
2026-05-07 18:23 44.30997 -117.28328 36036 ft 427 kts 313°
2026-05-07 18:23 44.35076 -117.34331 36038 ft 427 kts 313°
2026-05-07 18:24 44.39162 -117.40356 36038 ft 426 kts 313°
2026-05-07 18:24 44.43246 -117.46396 36039 ft 426 kts 313°
2026-05-07 18:25 44.47293 -117.52389 36040 ft 426 kts 313°
2026-05-07 18:25 44.51374 -117.58439 36042 ft 425 kts 313°
2026-05-07 18:26 44.55433 -117.64486 36054 ft 426 kts 313°
2026-05-07 18:26 44.59467 -117.70512 36065 ft 426 kts 313°
2026-05-07 18:27 44.63530 -117.76578 36076 ft 425 kts 313°
2026-05-07 18:27 44.67558 -117.82598 36085 ft 425 kts 313°
2026-05-07 18:28 44.71610 -117.88675 36091 ft 425 kts 312°
2026-05-07 18:28 44.75639 -117.94733 36098 ft 425 kts 313°
2026-05-07 18:29 44.79687 -118.00824 36086 ft 425 kts 312°
2026-05-07 18:29 44.83703 -118.06906 36091 ft 426 kts 312°
2026-05-07 18:30 44.87742 -118.13028 36040 ft 428 kts 313°
2026-05-07 18:30 44.91796 -118.19167 36056 ft 429 kts 312°
2026-05-07 18:31 44.95842 -118.25329 36088 ft 428 kts 312°
2026-05-07 18:31 44.99912 -118.31527 36083 ft 429 kts 312°
2026-05-07 18:32 45.03963 -118.37720 36064 ft 427 kts 312°
2026-05-07 18:32 45.07989 -118.43883 36068 ft 427 kts 312°
2026-05-07 18:33 45.12007 -118.50047 36068 ft 427 kts 312°
2026-05-07 18:33 45.16043 -118.56251 36068 ft 427 kts 312°
2026-05-07 18:34 45.20068 -118.62455 36067 ft 427 kts 311°
2026-05-07 18:34 45.24090 -118.68667 36068 ft 427 kts 311°
2026-05-07 18:35 45.28086 -118.74854 36066 ft 427 kts 311°
2026-05-07 18:35 45.32092 -118.81068 36061 ft 427 kts 311°
2026-05-07 18:36 45.36115 -118.87325 36065 ft 427 kts 311°
2026-05-07 18:36 45.40118 -118.93566 36068 ft 427 kts 311°
2026-05-07 18:37 45.44099 -118.99786 36075 ft 427 kts 311°
2026-05-07 18:37 45.48095 -119.06042 36078 ft 427 kts 311°
2026-05-07 18:38 45.52087 -119.12311 36070 ft 427 kts 311°
2026-05-07 18:38 45.56080 -119.18591 36069 ft 427 kts 311°
2026-05-07 18:39 45.60072 -119.24881 36070 ft 427 kts 311°
2026-05-07 18:39 45.64058 -119.31179 36073 ft 427 kts 311°
2026-05-07 18:40 45.68038 -119.37482 36069 ft 427 kts 311°
2026-05-07 18:40 45.72019 -119.43802 36070 ft 427 kts 311°
2026-05-07 18:41 45.75965 -119.50079 36071 ft 427 kts 311°
2026-05-07 18:41 45.79933 -119.56408 36070 ft 427 kts 311°
2026-05-07 18:42 45.83906 -119.62758 36060 ft 427 kts 311°
2026-05-07 18:42 45.87887 -119.69138 36062 ft 430 kts 311°
2026-05-07 18:43 45.91874 -119.75541 36059 ft 430 kts 311°
2026-05-07 18:43 45.95864 -119.81962 36060 ft 431 kts 310°
2026-05-07 18:44 45.99853 -119.88397 36053 ft 431 kts 310°
2026-05-07 18:44 46.03835 -119.94837 36051 ft 431 kts 310°
2026-05-07 18:45 46.07814 -120.01287 36053 ft 431 kts 310°
2026-05-07 18:45 46.11764 -120.07705 36051 ft 430 kts 310°
2026-05-07 18:46 46.15734 -120.14171 36050 ft 430 kts 310°
2026-05-07 18:46 46.19701 -120.20647 36045 ft 431 kts 310°
2026-05-07 18:47 46.23667 -120.27136 36047 ft 431 kts 310°
2026-05-07 18:47 46.27624 -120.33623 36042 ft 430 kts 310°
2026-05-07 18:48 46.31583 -120.40135 36045 ft 430 kts 310°
2026-05-07 18:48 46.35532 -120.46645 36045 ft 430 kts 310°
2026-05-07 18:49 46.38812 -120.52063 36043 ft 430 kts 310°
2026-05-07 18:49 46.43397 -120.59651 36053 ft 430 kts 310°
2026-05-07 18:50 46.46697 -120.65127 36053 ft 430 kts 310°
2026-05-07 18:50 46.50634 -120.71677 36053 ft 431 kts 310°
2026-05-07 18:51 46.54539 -120.78187 36049 ft 430 kts 310°
2026-05-07 18:51 46.58466 -120.84747 36049 ft 429 kts 310°
2026-05-07 18:52 46.62389 -120.91318 36048 ft 429 kts 309°
2026-05-07 18:52 46.66295 -120.97875 36051 ft 429 kts 310°
2026-05-07 18:53 46.70199 -121.04458 36049 ft 429 kts 309°
2026-05-07 18:53 46.74102 -121.11050 36054 ft 430 kts 310°
2026-05-07 18:54 46.78007 -121.17646 36068 ft 430 kts 309°
2026-05-07 18:54 46.81908 -121.24257 36032 ft 429 kts 309°
2026-05-07 18:55 46.85827 -121.30926 36061 ft 434 kts 309°
2026-05-07 18:55 46.89727 -121.37571 36076 ft 432 kts 309°
2026-05-07 18:56 46.93644 -121.44257 36074 ft 433 kts 309°
2026-05-07 18:56 46.97561 -121.50965 36108 ft 433 kts 309°
2026-05-07 18:57 47.01466 -121.57663 36136 ft 433 kts 309°
2026-05-07 18:57 47.05377 -121.64376 36117 ft 433 kts 309°
2026-05-07 18:58 47.09286 -121.71108 36135 ft 433 kts 309°
2026-05-07 18:58 47.13183 -121.77850 36157 ft 433 kts 309°
2026-05-07 18:59 47.17071 -121.84608 36156 ft 433 kts 309°
2026-05-07 18:59 47.20937 -121.91333 36187 ft 433 kts 308°
2026-05-07 19:00 47.24853 -121.98157 36178 ft 433 kts 308°
2026-05-07 19:00 47.28739 -122.04941 36190 ft 433 kts 308°
2026-05-07 19:01 47.32595 -122.11689 36196 ft 433 kts 308°
2026-05-07 19:01 47.36474 -122.18497 36194 ft 433 kts 308°
2026-05-07 19:02 47.40347 -122.25312 36193 ft 433 kts 308°
2026-05-07 19:02 47.43997 -122.32362 36194 ft 432 kts 301°
2026-05-07 19:03 47.47082 -122.39979 36192 ft 432 kts 300°
2026-05-07 19:03 47.50072 -122.47691 36200 ft 432 kts 299°
2026-05-07 19:04 47.53050 -122.55434 36190 ft 433 kts 299°
2026-05-07 19:04 47.56029 -122.63189 36192 ft 433 kts 299°
2026-05-07 19:05 47.58986 -122.70893 36191 ft 434 kts 298°
2026-05-07 19:05 47.61981 -122.78710 36191 ft 436 kts 298°
2026-05-07 19:06 47.64974 -122.86542 36181 ft 436 kts 298°
2026-05-07 19:06 47.69450 -122.98299 36179 ft 435 kts 298°
2026-05-07 19:07 47.72434 -123.06136 36185 ft 436 kts 298°
2026-05-07 19:07 47.75407 -123.13996 36174 ft 437 kts 298°
2026-05-07 19:08 47.78377 -123.21897 36115 ft 438 kts 298°
2026-05-07 19:08 47.81322 -123.29738 36159 ft 436 kts 298°
2026-05-07 19:09 47.84280 -123.37629 36155 ft 436 kts 297°
2026-05-07 19:09 47.87235 -123.45538 36176 ft 436 kts 298°
2026-05-07 19:10 47.90174 -123.53445 36184 ft 436 kts 297°
2026-05-07 19:10 47.93113 -123.61364 36181 ft 436 kts 297°
2026-05-07 19:11 47.96049 -123.69274 36170 ft 436 kts 297°
2026-05-07 19:11 47.98998 -123.77228 36177 ft 439 kts 297°
2026-05-07 19:12 48.01914 -123.85152 36171 ft 439 kts 297°
2026-05-07 19:12 48.04846 -123.93152 36184 ft 438 kts 297°
2026-05-07 19:13 48.07774 -124.01157 36180 ft 438 kts 297°
2026-05-07 19:13 48.10698 -124.09175 36209 ft 439 kts 296°
2026-05-07 19:14 48.13605 -124.17196 36186 ft 439 kts 297°
2026-05-07 19:14 48.16525 -124.25223 36184 ft 438 kts 296°
2026-05-07 19:15 48.19423 -124.33261 36190 ft 438 kts 296°
2026-05-07 19:15 48.22307 -124.41251 36187 ft 438 kts 296°
2026-05-07 19:16 48.25201 -124.49298 36186 ft 438 kts 296°
2026-05-07 19:16 48.28091 -124.57365 36183 ft 438 kts 296°
2026-05-07 19:17 48.30612 -124.65682 36193 ft 437 kts 289°
2026-05-07 19:17 48.32621 -124.74322 36190 ft 439 kts 287°
2026-05-07 19:18 48.34544 -124.83026 36189 ft 439 kts 287°
2026-05-07 19:18 48.36441 -124.91684 36189 ft 439 kts 287°
2026-05-07 19:19 48.38354 -125.00408 36189 ft 439 kts 287°
2026-05-07 19:19 48.40265 -125.09130 36195 ft 439 kts 287°
2026-05-07 19:20 48.42171 -125.17858 36192 ft 439 kts 287°
2026-05-07 19:20 48.44071 -125.26601 36192 ft 439 kts 287°
2026-05-07 19:21 48.45965 -125.35354 36189 ft 439 kts 287°
2026-05-07 19:21 48.47852 -125.44111 36175 ft 439 kts 286°
2026-05-07 19:22 48.49723 -125.52835 36189 ft 441 kts 286°
2026-05-07 19:22 48.51605 -125.61643 36189 ft 441 kts 286°
2026-05-07 19:23 48.53482 -125.70467 36189 ft 442 kts 286°
2026-05-07 19:23 48.55356 -125.79316 36190 ft 442 kts 286°
2026-05-07 19:24 48.57217 -125.88136 36189 ft 442 kts 285°
2026-05-07 19:24 48.59075 -125.96990 36175 ft 442 kts 285°
2026-05-07 19:25 48.60913 -126.05781 36179 ft 442 kts 285°
2026-05-07 19:25 48.62759 -126.14652 36178 ft 442 kts 285°
2026-05-07 19:26 48.64598 -126.23528 36175 ft 443 kts 285°
2026-05-07 19:26 48.66434 -126.32435 36176 ft 444 kts 285°
2026-05-07 19:27 48.68269 -126.41364 36176 ft 444 kts 285°
2026-05-07 19:27 48.70094 -126.50291 36177 ft 444 kts 284°
2026-05-07 19:28 48.71903 -126.59179 36176 ft 445 kts 284°
2026-05-07 19:28 48.73707 -126.68141 36174 ft 445 kts 283°
2026-05-07 19:29 48.74866 -126.77317 36178 ft 443 kts 277°
2026-05-07 19:29 48.75746 -126.86555 36178 ft 443 kts 276°
2026-05-07 19:30 48.76573 -126.95806 36178 ft 442 kts 276°
2026-05-07 19:30 48.77396 -127.05060 36181 ft 443 kts 276°
2026-05-07 19:31 48.78220 -127.14319 36176 ft 443 kts 276°
2026-05-07 19:31 48.79041 -127.23584 36176 ft 443 kts 276°
2026-05-07 19:32 48.79851 -127.32804 36179 ft 444 kts 276°
2026-05-07 19:32 48.80658 -127.42086 36179 ft 444 kts 276°
2026-05-07 19:33 48.81458 -127.51380 36178 ft 444 kts 275°
2026-05-07 19:33 48.82251 -127.60678 36189 ft 445 kts 275°
2026-05-07 19:34 48.83038 -127.70006 36187 ft 446 kts 275°
2026-05-07 19:34 48.83814 -127.79290 36187 ft 446 kts 275°
2026-05-07 19:35 48.84588 -127.88642 36189 ft 446 kts 275°
2026-05-07 19:35 48.85354 -127.97992 36190 ft 446 kts 275°
2026-05-07 19:36 48.86112 -128.07350 36194 ft 446 kts 275°
2026-05-07 19:36 48.86863 -128.16700 36211 ft 446 kts 274°
2026-05-07 19:37 48.87607 -128.26069 36195 ft 448 kts 274°
2026-05-07 19:37 48.88347 -128.35495 36200 ft 449 kts 274°
2026-05-07 19:38 48.89076 -128.44866 36200 ft 449 kts 274°
2026-05-07 19:38 48.89801 -128.54292 36200 ft 449 kts 274°
2026-05-07 19:39 48.90518 -128.63710 36206 ft 449 kts 274°
2026-05-07 19:39 48.91111 -128.71592 36206 ft 449 kts 274°
2026-05-07 19:40 48.91811 -128.80985 36206 ft 448 kts 274°
2026-05-07 19:40 48.92509 -128.90454 36211 ft 451 kts 274°
2026-05-07 19:41 48.93201 -128.99965 36211 ft 453 kts 274°
2026-05-07 19:41 48.93885 -129.09448 36211 ft 453 kts 273°
2026-05-07 19:42 48.94564 -129.18988 36214 ft 453 kts 273°
2026-05-07 19:42 48.95232 -129.28472 36214 ft 452 kts 273°
2026-05-07 19:43 48.95896 -129.38028 36214 ft 453 kts 273°
2026-05-07 19:43 48.96551 -129.47565 36213 ft 453 kts 273°
2026-05-07 19:44 48.97195 -129.57069 36217 ft 455 kts 273°
2026-05-07 19:44 48.97837 -129.66659 36216 ft 455 kts 273°
2026-05-07 19:45 48.98472 -129.76262 36219 ft 455 kts 273°
2026-05-07 19:45 48.99099 -129.85868 36219 ft 455 kts 273°
2026-05-07 19:46 48.99730 -129.95425 36224 ft 457 kts 274°
2026-05-07 19:46 49.01284 -130.04912 36222 ft 464 kts 285°
2026-05-07 19:47 49.03501 -130.14102 36222 ft 466 kts 287°
2026-05-07 19:47 49.05841 -130.23323 36225 ft 464 kts 287°
2026-05-07 19:48 49.08157 -130.32482 36224 ft 462 kts 287°
2026-05-07 19:48 49.10437 -130.41609 36228 ft 462 kts 286°
2026-05-07 19:49 49.12716 -130.50814 36228 ft 462 kts 286°
2026-05-07 19:49 49.14970 -130.59959 36229 ft 462 kts 286°
2026-05-07 19:50 49.17227 -130.69149 36227 ft 462 kts 286°
2026-05-07 19:50 49.19479 -130.78354 36229 ft 462 kts 286°
2026-05-07 19:51 49.21724 -130.87573 36229 ft 463 kts 286°
2026-05-07 19:51 49.23957 -130.96778 36227 ft 463 kts 286°
2026-05-07 19:52 49.26191 -131.06023 36233 ft 463 kts 285°
2026-05-07 19:52 49.28411 -131.15251 36232 ft 463 kts 285°
2026-05-07 19:53 49.30634 -131.24531 36258 ft 464 kts 285°
2026-05-07 19:53 49.32865 -131.33895 36230 ft 467 kts 285°
2026-05-07 19:54 49.35079 -131.43214 36229 ft 467 kts 285°
2026-05-07 19:54 49.37301 -131.52604 36227 ft 467 kts 285°
2026-05-07 19:55 49.39502 -131.61947 36234 ft 467 kts 284°
2026-05-07 19:55 49.41707 -131.71353 36243 ft 468 kts 284°
2026-05-07 19:56 49.43912 -131.80801 36232 ft 470 kts 284°
2026-05-07 19:56 49.46099 -131.90211 36234 ft 470 kts 284°
2026-05-07 19:57 49.48294 -131.99696 36237 ft 470 kts 284°
2026-05-07 19:57 49.50480 -132.09185 36233 ft 470 kts 284°
2026-05-07 19:58 49.52658 -132.18682 36237 ft 470 kts 284°
2026-05-07 19:58 49.54818 -132.28148 36237 ft 472 kts 283°
2026-05-07 19:59 49.57000 -132.37759 36236 ft 475 kts 283°
2026-05-07 19:59 49.59170 -132.47343 36235 ft 475 kts 283°
2026-05-07 20:00 49.61344 -132.56986 36257 ft 476 kts 283°
2026-05-07 20:00 49.63498 -132.66593 36240 ft 476 kts 283°
2026-05-07 20:01 49.65662 -132.76291 36240 ft 477 kts 283°
2026-05-07 20:01 49.67814 -132.85979 36234 ft 477 kts 282°
2026-05-07 20:02 49.69945 -132.95617 36234 ft 477 kts 282°
2026-05-07 20:02 49.72082 -133.05327 36235 ft 477 kts 282°
2026-05-07 20:03 49.74207 -133.15031 36235 ft 478 kts 282°
2026-05-07 20:03 49.76317 -133.24704 36235 ft 478 kts 282°
2026-05-07 20:04 49.78456 -133.34560 36237 ft 480 kts 282°
2026-05-07 20:04 49.80565 -133.44333 36235 ft 482 kts 282°
2026-05-07 20:05 49.82688 -133.54211 36232 ft 483 kts 282°
2026-05-07 20:05 49.84796 -133.64062 36228 ft 483 kts 282°
2026-05-07 20:06 49.86905 -133.73966 36236 ft 483 kts 282°
2026-05-07 20:06 49.89008 -133.83892 36236 ft 483 kts 281°
2026-05-07 20:07 49.91097 -133.93803 36230 ft 483 kts 281°
2026-05-07 20:07 49.93166 -134.03669 36222 ft 483 kts 281°
2026-05-07 20:08 49.95240 -134.13606 36227 ft 483 kts 281°
2026-05-07 20:08 49.97294 -134.23494 36228 ft 483 kts 281°
2026-05-07 20:09 49.99354 -134.33463 36226 ft 483 kts 281°
2026-05-07 20:10 50.02429 -134.48449 36222 ft 489 kts 280°
2026-05-07 20:10 50.04493 -134.58559 36222 ft 489 kts 280°
2026-05-07 20:11 50.06536 -134.68613 36223 ft 489 kts 280°
2026-05-07 20:11 50.08580 -134.78726 36221 ft 489 kts 280°
2026-05-07 20:12 50.10611 -134.88837 36217 ft 489 kts 280°
2026-05-07 20:12 50.12624 -134.98905 36216 ft 489 kts 280°
2026-05-07 20:13 50.14643 -135.09056 36214 ft 489 kts 280°
2026-05-07 20:13 50.16642 -135.19159 36214 ft 489 kts 280°
2026-05-07 20:14 50.18641 -135.29317 36226 ft 489 kts 280°
2026-05-07 20:14 50.20633 -135.39492 36208 ft 490 kts 280°
2026-05-07 20:15 50.22605 -135.49621 36208 ft 490 kts 280°
2026-05-07 20:15 50.24588 -135.59853 36209 ft 490 kts 280°
2026-05-07 20:16 50.26543 -135.70002 36204 ft 490 kts 280°
2026-05-07 20:16 50.28503 -135.80232 36212 ft 491 kts 280°
2026-05-07 20:17 50.30459 -135.90499 36201 ft 491 kts 280°
2026-05-07 20:17 50.32391 -136.00688 36192 ft 491 kts 279°
2026-05-07 20:18 50.34326 -136.10948 36211 ft 491 kts 279°
2026-05-07 20:18 50.36250 -136.21205 36215 ft 491 kts 279°
2026-05-07 20:19 50.38160 -136.31453 36194 ft 492 kts 279°
2026-05-07 20:19 50.40070 -136.41752 36189 ft 492 kts 279°
2026-05-07 20:20 50.41961 -136.52005 36201 ft 492 kts 279°
2026-05-07 20:20 50.43862 -136.62371 36185 ft 494 kts 279°
2026-05-07 20:21 50.45745 -136.72701 36189 ft 494 kts 279°
2026-05-07 20:21 50.47632 -136.83108 36183 ft 495 kts 279°
2026-05-07 20:22 50.49501 -136.93472 36179 ft 495 kts 279°
2026-05-07 20:22 50.51368 -137.03884 36174 ft 495 kts 279°
2026-05-07 20:23 50.53231 -137.14336 36172 ft 495 kts 279°
2026-05-07 20:23 50.55069 -137.24711 36169 ft 495 kts 279°
2026-05-07 20:24 50.56911 -137.35169 36162 ft 495 kts 279°
2026-05-07 20:24 50.58732 -137.45567 36161 ft 495 kts 279°
2026-05-07 20:25 50.60559 -137.56059 36156 ft 495 kts 279°
2026-05-07 20:25 50.62362 -137.66481 36189 ft 495 kts 279°
2026-05-07 20:26 50.64175 -137.77027 36154 ft 499 kts 279°
2026-05-07 20:26 50.65971 -137.87524 36154 ft 499 kts 279°
2026-05-07 20:27 50.67771 -137.98107 36142 ft 499 kts 278°
2026-05-07 20:27 50.69562 -138.08702 36146 ft 499 kts 278°
2026-05-07 20:28 50.71332 -138.19249 36141 ft 500 kts 278°
2026-05-07 20:28 50.72805 -138.28076 36140 ft 500 kts 278°
2026-05-07 20:29 50.74570 -138.38701 36129 ft 500 kts 278°
2026-05-07 20:29 50.76328 -138.49357 36124 ft 500 kts 278°
2026-05-07 20:30 50.78071 -138.59984 36127 ft 500 kts 278°
2026-05-07 20:30 50.79801 -138.70603 36124 ft 500 kts 278°
2026-05-07 20:31 50.81517 -138.81207 36136 ft 500 kts 278°
2026-05-07 20:31 50.83240 -138.91926 36116 ft 502 kts 278°
2026-05-07 20:32 50.84950 -139.02621 36114 ft 503 kts 278°
2026-05-07 20:32 50.86660 -139.13388 36113 ft 503 kts 278°
2026-05-07 20:33 50.88346 -139.24069 36112 ft 503 kts 278°
2026-05-07 20:33 50.90036 -139.34850 36097 ft 503 kts 278°
2026-05-07 20:34 50.91703 -139.45556 36092 ft 503 kts 278°
2026-05-07 20:34 50.93371 -139.56339 36109 ft 503 kts 278°
2026-05-07 20:35 50.95029 -139.67130 36096 ft 502 kts 278°
2026-05-07 20:35 50.96667 -139.77867 36080 ft 502 kts 278°
2026-05-07 20:36 50.98306 -139.88679 36080 ft 502 kts 278°
2026-05-07 20:36 51.00014 -139.99382 36081 ft 507 kts 283°
2026-05-07 20:37 51.02491 -140.09951 36078 ft 511 kts 287°
2026-05-07 20:37 51.05130 -140.20477 36078 ft 512 kts 287°
2026-05-07 20:38 51.07785 -140.30992 36065 ft 512 kts 287°
2026-05-07 20:38 51.10406 -140.41474 36064 ft 512 kts 287°
2026-05-07 20:39 51.13023 -140.52030 36065 ft 511 kts 287°
2026-05-07 20:39 51.15615 -140.62546 36058 ft 512 kts 287°
2026-05-07 20:40 51.18208 -140.73118 36054 ft 512 kts 287°
2026-05-07 20:40 51.20778 -140.83643 36053 ft 512 kts 287°
2026-05-07 20:41 51.23355 -140.94251 36056 ft 511 kts 287°
2026-05-07 20:41 51.25920 -141.04856 36053 ft 511 kts 287°
2026-05-07 20:42 51.28458 -141.15401 36039 ft 511 kts 287°
2026-05-07 20:42 51.30997 -141.26004 36036 ft 511 kts 286°
2026-05-07 20:43 51.33514 -141.36568 36041 ft 510 kts 287°
2026-05-07 20:43 51.36033 -141.47186 36034 ft 510 kts 286°
2026-05-07 20:44 51.38543 -141.57820 36034 ft 510 kts 286°
2026-05-07 20:44 51.41026 -141.68395 36029 ft 510 kts 286°
2026-05-07 20:45 51.43519 -141.79065 36042 ft 510 kts 286°
2026-05-07 20:45 51.45995 -141.89716 36009 ft 509 kts 286°
2026-05-07 20:46 51.48445 -142.00307 36012 ft 510 kts 286°
2026-05-07 20:46 51.50906 -142.10992 36012 ft 510 kts 286°
2026-05-07 20:47 51.53360 -142.21705 36010 ft 510 kts 286°
2026-05-07 20:47 51.55793 -142.32381 36012 ft 510 kts 286°
2026-05-07 20:48 51.58227 -142.43115 36008 ft 510 kts 286°
2026-05-07 20:48 51.60630 -142.53768 36009 ft 510 kts 286°
2026-05-07 20:49 51.63043 -142.64516 36001 ft 509 kts 286°
2026-05-07 20:49 51.65429 -142.75201 36002 ft 508 kts 285°
2026-05-07 20:50 51.67815 -142.85941 35995 ft 508 kts 285°
2026-05-07 20:50 51.70190 -142.96691 35993 ft 508 kts 285°
2026-05-07 20:51 51.72539 -143.07371 35992 ft 508 kts 285°
2026-05-07 20:51 51.74892 -143.18131 35992 ft 508 kts 285°
2026-05-07 20:52 51.77234 -143.28894 35985 ft 508 kts 285°
2026-05-07 20:52 51.79553 -143.39607 35989 ft 508 kts 285°
2026-05-07 20:53 51.81879 -143.50409 35977 ft 508 kts 285°
2026-05-07 20:53 51.84193 -143.61212 35977 ft 507 kts 285°
2026-05-07 20:54 51.86476 -143.71925 35974 ft 506 kts 285°
2026-05-07 20:54 51.88760 -143.82707 35969 ft 506 kts 285°
2026-05-07 20:55 51.91039 -143.93523 35973 ft 507 kts 285°
2026-05-07 20:55 51.93303 -144.04321 35979 ft 508 kts 285°
2026-05-07 20:56 51.95568 -144.15175 35963 ft 506 kts 285°
2026-05-07 20:56 51.97804 -144.25953 35963 ft 506 kts 285°
2026-05-07 20:57 52.00040 -144.36793 35952 ft 506 kts 284°
2026-05-07 20:57 52.02268 -144.47654 35952 ft 506 kts 284°
2026-05-07 20:58 52.04472 -144.58459 35948 ft 507 kts 284°
2026-05-07 20:58 52.06687 -144.69378 35946 ft 507 kts 284°
2026-05-07 20:59 52.08879 -144.80235 35945 ft 507 kts 284°
2026-05-07 20:59 52.11071 -144.91157 35939 ft 507 kts 284°
2026-05-07 21:00 52.13253 -145.02091 35944 ft 507 kts 284°
2026-05-07 21:00 52.15411 -145.12970 35935 ft 508 kts 284°
2026-05-07 21:01 52.17578 -145.23951 35930 ft 508 kts 284°
2026-05-07 21:01 52.19731 -145.34918 35928 ft 507 kts 284°
2026-05-07 21:02 52.21861 -145.45835 35935 ft 507 kts 283°
2026-05-07 21:02 52.23989 -145.56797 35924 ft 505 kts 283°
2026-05-07 21:03 52.26089 -145.67685 35920 ft 505 kts 283°
2026-05-07 21:03 52.28194 -145.78665 35921 ft 505 kts 283°
2026-05-07 21:04 52.30275 -145.89582 35940 ft 505 kts 283°
2026-05-07 21:04 52.32352 -146.00531 35909 ft 503 kts 283°
2026-05-07 21:05 52.34419 -146.11498 35913 ft 503 kts 283°
2026-05-07 21:05 52.36473 -146.22463 35908 ft 503 kts 283°
2026-05-07 21:06 52.38507 -146.33383 35910 ft 503 kts 283°
2026-05-07 21:06 52.40528 -146.44299 35910 ft 501 kts 283°
2026-05-07 21:07 52.42537 -146.55204 35906 ft 499 kts 283°
2026-05-07 21:07 52.44522 -146.66051 35906 ft 499 kts 283°
2026-05-07 21:08 52.46505 -146.76958 35904 ft 499 kts 282°
2026-05-07 21:08 52.48481 -146.87886 35905 ft 498 kts 282°
2026-05-07 21:09 52.50428 -146.98711 35891 ft 497 kts 282°
2026-05-07 21:09 52.52373 -147.09598 35891 ft 497 kts 282°
2026-05-07 21:10 52.54314 -147.20525 35890 ft 497 kts 282°
2026-05-07 21:10 52.56230 -147.31380 35890 ft 497 kts 282°
2026-05-07 21:11 52.58149 -147.42310 35889 ft 495 kts 282°
2026-05-07 21:11 52.60983 -147.58588 35886 ft 495 kts 282°
2026-05-07 21:12 52.62876 -147.69543 35880 ft 495 kts 281°
2026-05-07 21:12 52.64741 -147.80405 35879 ft 495 kts 281°
2026-05-07 21:13 52.66609 -147.91349 35876 ft 495 kts 281°
2026-05-07 21:13 52.68453 -148.02223 35874 ft 495 kts 281°
2026-05-07 21:14 52.70301 -148.13191 35873 ft 497 kts 281°
2026-05-07 21:14 52.72132 -148.24125 35872 ft 498 kts 281°
2026-05-07 21:15 52.73969 -148.35154 35873 ft 497 kts 281°
2026-05-07 21:15 52.75783 -148.46122 35864 ft 497 kts 281°
2026-05-07 21:16 52.77596 -148.57153 35853 ft 496 kts 281°
2026-05-07 21:16 52.79386 -148.68123 35856 ft 496 kts 281°
2026-05-07 21:17 52.80877 -148.77312 35854 ft 496 kts 281°
2026-05-07 21:17 52.82650 -148.88297 35856 ft 496 kts 280°
2026-05-07 21:18 52.84420 -148.99344 35860 ft 496 kts 280°
2026-05-07 21:18 52.86181 -149.10404 35855 ft 496 kts 280°
2026-05-07 21:19 52.87917 -149.21392 35845 ft 495 kts 280°
2026-05-07 21:19 52.89655 -149.32456 35850 ft 495 kts 279°
2026-05-07 21:20 52.91370 -149.43445 35840 ft 495 kts 279°
2026-05-07 21:20 52.93086 -149.54523 35840 ft 495 kts 279°
2026-05-07 21:21 52.94780 -149.65526 35837 ft 495 kts 279°
2026-05-07 21:21 52.96476 -149.76623 35864 ft 495 kts 279°
2026-05-07 21:22 52.98151 -149.87651 35834 ft 495 kts 279°
2026-05-07 21:22 52.99873 -149.98688 36139 ft 494 kts 283°
2026-05-07 21:23 53.01038 -150.04069 36456 ft 493 kts 286°
2026-05-07 21:23 53.02267 -150.09368 36691 ft 492 kts 287°
2026-05-07 21:23 53.03527 -150.14654 36888 ft 491 kts 287°
2026-05-07 21:23 53.04785 -150.19863 37064 ft 490 kts 287°
2026-05-07 21:24 53.06060 -150.25130 37241 ft 490 kts 287°
2026-05-07 21:24 53.07331 -150.30393 37417 ft 489 kts 287°
2026-05-07 21:24 53.08596 -150.35654 37555 ft 488 kts 287°
2026-05-07 21:24 53.09854 -150.40909 37700 ft 488 kts 287°
2026-05-07 21:25 53.11091 -150.46101 37825 ft 488 kts 287°
2026-05-07 21:25 53.12344 -150.51380 37835 ft 491 kts 287°
2026-05-07 21:25 53.14856 -150.62011 37833 ft 493 kts 287°
2026-05-07 21:26 53.17370 -150.72688 37844 ft 493 kts 287°
2026-05-07 21:26 53.19846 -150.83256 37837 ft 492 kts 287°
2026-05-07 21:27 53.22330 -150.93915 37833 ft 492 kts 287°
2026-05-07 21:27 53.24805 -151.04593 37835 ft 493 kts 287°
2026-05-07 21:28 53.27262 -151.15237 37869 ft 493 kts 287°
2026-05-07 21:28 53.29716 -151.25923 37848 ft 492 kts 287°
2026-05-07 21:29 53.32161 -151.36630 37854 ft 492 kts 287°
2026-05-07 21:29 53.34598 -151.47351 37854 ft 492 kts 287°
2026-05-07 21:30 53.37021 -151.58069 37860 ft 492 kts 287°
2026-05-07 21:30 53.39420 -151.68735 37859 ft 492 kts 287°
2026-05-07 21:31 53.41827 -151.79488 37864 ft 491 kts 287°
2026-05-07 21:31 53.44224 -151.90254 37873 ft 491 kts 287°
2026-05-07 21:32 53.46596 -152.00963 37874 ft 491 kts 287°
2026-05-07 21:32 53.48972 -152.11747 37884 ft 491 kts 287°
2026-05-07 21:33 53.51316 -152.22439 37877 ft 490 kts 287°
2026-05-07 21:33 53.53664 -152.33206 37882 ft 490 kts 287°
2026-05-07 21:34 53.56003 -152.43986 37879 ft 490 kts 286°
2026-05-07 21:34 53.58334 -152.54789 37890 ft 490 kts 286°
2026-05-07 21:35 53.60641 -152.65535 37899 ft 490 kts 286°
2026-05-07 21:35 53.62952 -152.76358 37898 ft 490 kts 286°
2026-05-07 21:36 53.65237 -152.87118 37893 ft 490 kts 286°
2026-05-07 21:36 53.67527 -152.97957 37895 ft 490 kts 286°
2026-05-07 21:37 53.69808 -153.08811 37908 ft 489 kts 286°
2026-05-07 21:37 53.72061 -153.19594 37907 ft 488 kts 286°
2026-05-07 21:38 53.74316 -153.30441 37908 ft 488 kts 286°
2026-05-07 21:38 53.76560 -153.41296 37916 ft 488 kts 286°
2026-05-07 21:39 53.78778 -153.52084 37936 ft 488 kts 286°
2026-05-07 21:39 53.81002 -153.62959 37922 ft 488 kts 286°
2026-05-07 21:40 53.83211 -153.73815 37919 ft 487 kts 286°
2026-05-07 21:40 53.85408 -153.84678 37928 ft 487 kts 286°
2026-05-07 21:41 53.87580 -153.95476 37925 ft 487 kts 285°
2026-05-07 21:41 53.89757 -154.06357 37929 ft 487 kts 286°
2026-05-07 21:42 53.91924 -154.17244 37930 ft 486 kts 285°
2026-05-07 21:42 53.94080 -154.28144 37937 ft 486 kts 285°
2026-05-07 21:43 53.96213 -154.38982 37935 ft 486 kts 285°
2026-05-07 21:43 53.98346 -154.49890 37930 ft 486 kts 285°
2026-05-07 21:44 54.00472 -154.60815 37935 ft 485 kts 285°
2026-05-07 21:44 54.02570 -154.71659 37945 ft 485 kts 285°
2026-05-07 21:45 54.04670 -154.82581 37944 ft 485 kts 285°
2026-05-07 21:45 54.06745 -154.93429 37950 ft 485 kts 285°
2026-05-07 21:46 54.08826 -155.04377 37956 ft 484 kts 285°
2026-05-07 21:46 54.10883 -155.15254 37947 ft 484 kts 285°
2026-05-07 21:47 54.12938 -155.26184 37947 ft 483 kts 285°
2026-05-07 21:47 54.14983 -155.37129 37955 ft 483 kts 285°
2026-05-07 21:48 54.17005 -155.48017 37963 ft 483 kts 285°
2026-05-07 21:48 54.19034 -155.59004 37959 ft 484 kts 285°
2026-05-07 21:49 54.21044 -155.69950 37959 ft 484 kts 285°
2026-05-07 21:49 54.23053 -155.80956 37965 ft 484 kts 284°
2026-05-07 21:50 54.25037 -155.91894 37965 ft 484 kts 284°
2026-05-07 21:50 54.27026 -156.02922 37965 ft 485 kts 285°
2026-05-07 21:51 54.28998 -156.13923 37967 ft 485 kts 284°
2026-05-07 21:51 54.30968 -156.24980 37966 ft 485 kts 284°
2026-05-07 21:52 54.32920 -156.36000 37972 ft 485 kts 284°
2026-05-07 21:52 54.34869 -156.47075 37973 ft 485 kts 284°
2026-05-07 21:53 54.36814 -156.58193 37975 ft 487 kts 284°
2026-05-07 21:53 54.38738 -156.69263 37974 ft 487 kts 284°
2026-05-07 21:54 54.40668 -156.80433 37980 ft 487 kts 284°
2026-05-07 21:54 54.42584 -156.91589 37979 ft 487 kts 284°
2026-05-07 21:55 54.44481 -157.02710 37985 ft 488 kts 284°
2026-05-07 21:55 54.46383 -157.13931 37985 ft 488 kts 284°
2026-05-07 21:56 54.48263 -157.25088 37986 ft 488 kts 284°
2026-05-07 21:56 54.50145 -157.36337 37986 ft 488 kts 284°
2026-05-07 21:57 54.52015 -157.47578 37987 ft 488 kts 284°
2026-05-07 21:57 54.53865 -157.58777 37989 ft 488 kts 284°
2026-05-07 21:58 54.55713 -157.70035 37990 ft 488 kts 284°
2026-05-07 21:58 54.57550 -157.81303 37990 ft 488 kts 284°
2026-05-07 21:59 54.59376 -157.92576 37992 ft 488 kts 283°
2026-05-07 21:59 54.61187 -158.03829 37992 ft 489 kts 284°
2026-05-07 22:00 54.62998 -158.15161 37998 ft 490 kts 284°
2026-05-07 22:00 54.64802 -158.26523 37999 ft 490 kts 283°
2026-05-07 22:01 54.66583 -158.37818 38001 ft 490 kts 283°
2026-05-07 22:01 54.68367 -158.49209 38010 ft 490 kts 283°
2026-05-07 22:02 54.70141 -158.60616 38003 ft 491 kts 283°
2026-05-07 22:02 54.71903 -158.72023 38004 ft 491 kts 283°
2026-05-07 22:03 54.73656 -158.83449 38009 ft 491 kts 283°
2026-05-07 22:03 54.75387 -158.94811 38007 ft 491 kts 283°
2026-05-07 22:04 54.77119 -159.06265 37999 ft 491 kts 283°
2026-05-07 22:04 54.78842 -159.17736 37999 ft 492 kts 283°
2026-05-07 22:05 54.80267 -159.27282 38017 ft 492 kts 283°
2026-05-07 22:05 54.81968 -159.38759 37999 ft 492 kts 283°
2026-05-07 22:06 54.83659 -159.50249 38019 ft 491 kts 283°
2026-05-07 22:06 54.85338 -159.61743 38015 ft 491 kts 283°
2026-05-07 22:07 54.87005 -159.73237 38017 ft 491 kts 283°
2026-05-07 22:07 54.88653 -159.84683 38013 ft 490 kts 283°
2026-05-07 22:08 54.90299 -159.96204 38013 ft 491 kts 283°
2026-05-07 22:08 54.91931 -160.07708 38017 ft 490 kts 283°
2026-05-07 22:09 54.93550 -160.19212 38013 ft 489 kts 283°
2026-05-07 22:09 54.95157 -160.30708 38015 ft 489 kts 283°
2026-05-07 22:10 54.96751 -160.42203 38014 ft 489 kts 282°
2026-05-07 22:10 54.98324 -160.53632 38018 ft 489 kts 282°
2026-05-07 22:11 54.99899 -160.65153 38017 ft 489 kts 282°
2026-05-07 22:11 55.01461 -160.76682 38017 ft 489 kts 282°
2026-05-07 22:12 55.03016 -160.88255 38019 ft 489 kts 282°
2026-05-07 22:12 55.04556 -160.99808 38020 ft 489 kts 282°
2026-05-07 22:13 55.06088 -161.11364 38023 ft 489 kts 282°
2026-05-07 22:13 55.07601 -161.22886 38019 ft 490 kts 282°
2026-05-07 22:14 55.09115 -161.34500 38028 ft 491 kts 282°
2026-05-07 22:14 55.10617 -161.46124 38025 ft 491 kts 282°
2026-05-07 22:15 55.12107 -161.57750 38024 ft 491 kts 282°
2026-05-07 22:15 55.13588 -161.69381 38028 ft 490 kts 282°
2026-05-07 22:16 55.15055 -161.81040 38020 ft 491 kts 282°
2026-05-07 22:16 55.16515 -161.92729 38031 ft 492 kts 282°
2026-05-07 22:17 55.17958 -162.04345 38030 ft 491 kts 282°
2026-05-07 22:17 55.19393 -162.16009 38039 ft 490 kts 282°
2026-05-07 22:18 55.21523 -162.33525 38036 ft 491 kts 282°
2026-05-07 22:19 55.22932 -162.45232 38036 ft 491 kts 281°
2026-05-07 22:19 55.24329 -162.56946 38029 ft 491 kts 281°
2026-05-07 22:20 55.25715 -162.68667 38026 ft 491 kts 281°
2026-05-07 22:20 55.26901 -162.80464 38023 ft 492 kts 277°
2026-05-07 22:21 55.27709 -162.92370 38022 ft 492 kts 276°
2026-05-07 22:21 55.28446 -163.04299 38021 ft 492 kts 276°
2026-05-07 22:22 55.29166 -163.16237 38022 ft 492 kts 276°
2026-05-07 22:22 55.29880 -163.28171 38030 ft 492 kts 276°
2026-05-07 22:23 55.30590 -163.40142 38026 ft 493 kts 276°
2026-05-07 22:23 55.31289 -163.52130 38027 ft 493 kts 276°
2026-05-07 22:24 55.31974 -163.64101 38028 ft 493 kts 276°
2026-05-07 22:24 55.32645 -163.76017 38031 ft 493 kts 275°
2026-05-07 22:25 55.33308 -163.88018 38033 ft 494 kts 276°
2026-05-07 22:25 55.33961 -164.00051 38031 ft 494 kts 276°
2026-05-07 22:26 55.34602 -164.12072 38038 ft 494 kts 275°
2026-05-07 22:26 55.35231 -164.24109 38036 ft 495 kts 275°
2026-05-07 22:27 55.35848 -164.36151 38038 ft 495 kts 276°
2026-05-07 22:27 55.36454 -164.48201 38039 ft 495 kts 275°
2026-05-07 22:28 55.37048 -164.60259 38041 ft 495 kts 275°
2026-05-07 22:28 55.37631 -164.72330 38039 ft 495 kts 275°
2026-05-07 22:29 55.38201 -164.84401 38043 ft 495 kts 275°
2026-05-07 22:29 55.38761 -164.96483 38042 ft 496 kts 275°
2026-05-07 22:30 55.39305 -165.08500 38037 ft 496 kts 275°
2026-05-07 22:30 55.39841 -165.20611 38037 ft 497 kts 275°
2026-05-07 22:31 55.40366 -165.32727 38046 ft 497 kts 275°
2026-05-07 22:31 55.40878 -165.44852 38038 ft 497 kts 275°
2026-05-07 22:32 55.41379 -165.56988 38044 ft 497 kts 275°
2026-05-07 22:32 55.41868 -165.69116 38049 ft 497 kts 275°
2026-05-07 22:33 55.42346 -165.81298 38048 ft 498 kts 275°
2026-05-07 22:33 55.42812 -165.93455 38053 ft 498 kts 274°
2026-05-07 22:34 55.43265 -166.05606 38048 ft 498 kts 274°
2026-05-07 22:34 55.43704 -166.17696 38051 ft 498 kts 274°
2026-05-07 22:35 55.44134 -166.29880 38050 ft 498 kts 274°
2026-05-07 22:35 55.44551 -166.42055 38040 ft 498 kts 275°
2026-05-07 22:36 55.44957 -166.54256 38042 ft 499 kts 274°
2026-05-07 22:36 55.45351 -166.66464 38044 ft 499 kts 274°
2026-05-07 22:37 55.45734 -166.78680 38045 ft 499 kts 274°
2026-05-07 22:37 55.46104 -166.90890 38045 ft 499 kts 274°
2026-05-07 22:38 55.46460 -167.03091 38049 ft 499 kts 274°
2026-05-07 22:38 55.46806 -167.15314 38041 ft 499 kts 274°
2026-05-07 22:39 55.47139 -167.27532 38049 ft 499 kts 274°
2026-05-07 22:39 55.47461 -167.39773 38044 ft 500 kts 274°
2026-05-07 22:40 55.47769 -167.51933 38048 ft 500 kts 274°
2026-05-07 22:40 55.48066 -167.64183 38052 ft 500 kts 273°
2026-05-07 22:41 55.48352 -167.76435 38043 ft 499 kts 273°
2026-05-07 22:41 55.48624 -167.88663 38037 ft 500 kts 273°
2026-05-07 22:42 55.48885 -168.00923 38038 ft 500 kts 273°
2026-05-07 22:42 55.49133 -168.13174 38037 ft 500 kts 274°
2026-05-07 22:43 55.49370 -168.25439 38043 ft 500 kts 273°
2026-05-07 22:43 55.49594 -168.37702 38044 ft 500 kts 272°
2026-05-07 22:44 55.49806 -168.49962 38040 ft 500 kts 273°
2026-05-07 22:44 55.50005 -168.62210 38040 ft 499 kts 273°
2026-05-07 22:45 55.50191 -168.74380 38040 ft 499 kts 272°
2026-05-07 22:45 55.50366 -168.86627 38034 ft 499 kts 273°
2026-05-07 22:46 55.50529 -168.98867 38036 ft 500 kts 272°
2026-05-07 22:46 55.50680 -169.11138 38031 ft 499 kts 273°
2026-05-07 22:47 55.50808 -169.23383 38038 ft 500 kts 271°
2026-05-07 22:47 55.50852 -169.35641 38030 ft 499 kts 272°
2026-05-07 22:48 55.50866 -169.47810 38032 ft 499 kts 271°
2026-05-07 22:48 55.50880 -169.60066 38033 ft 499 kts 271°
2026-05-07 22:49 55.50888 -169.72312 38034 ft 500 kts 272°
2026-05-07 22:49 55.50886 -169.84581 38033 ft 499 kts 271°
2026-05-07 22:50 55.50872 -169.96833 38033 ft 500 kts 271°
2026-05-07 22:50 55.50844 -170.09081 38035 ft 499 kts 271°
2026-05-07 22:51 55.50805 -170.21333 38029 ft 499 kts 271°
2026-05-07 22:51 55.50753 -170.33568 38023 ft 499 kts 271°
2026-05-07 22:52 55.50690 -170.45740 38018 ft 499 kts 271°
2026-05-07 22:52 55.50614 -170.57986 38021 ft 499 kts 271°
2026-05-07 22:53 55.50527 -170.70209 38020 ft 498 kts 271°
2026-05-07 22:53 55.50427 -170.82435 38023 ft 498 kts 271°
2026-05-07 22:54 55.50335 -170.92594 38018 ft 498 kts 270°
2026-05-07 22:54 55.50213 -171.04818 38016 ft 499 kts 270°
2026-05-07 22:55 55.50078 -171.17054 38014 ft 498 kts 270°
2026-05-07 22:55 55.49931 -171.29277 38018 ft 498 kts 270°
2026-05-07 22:56 55.49771 -171.41484 38024 ft 498 kts 270°
2026-05-07 22:56 55.49600 -171.53705 38023 ft 498 kts 270°
2026-05-07 22:57 55.49417 -171.65923 38009 ft 498 kts 270°
2026-05-07 22:57 55.49223 -171.78037 38003 ft 497 kts 270°
2026-05-07 22:58 55.49017 -171.90220 38004 ft 497 kts 269°
2026-05-07 22:58 55.48797 -172.02402 38012 ft 497 kts 270°
2026-05-07 22:59 55.48567 -172.14582 38004 ft 497 kts 270°
2026-05-07 22:59 55.48324 -172.26764 38003 ft 498 kts 269°
2026-05-07 23:00 55.48068 -172.38956 38004 ft 497 kts 269°
2026-05-07 23:00 55.47799 -172.51167 38006 ft 498 kts 269°
2026-05-07 23:01 55.47520 -172.63356 38008 ft 498 kts 268°
2026-05-07 23:01 55.47227 -172.75576 38007 ft 497 kts 268°
2026-05-07 23:02 55.46922 -172.87759 37998 ft 498 kts 268°
2026-05-07 23:02 55.46608 -172.99870 37998 ft 498 kts 268°
2026-05-07 23:03 55.46280 -173.12074 37998 ft 498 kts 268°
2026-05-07 23:03 55.45939 -173.24273 37994 ft 499 kts 267°
2026-05-07 23:04 55.45586 -173.36457 37988 ft 498 kts 267°
2026-05-07 23:04 55.45221 -173.48663 37988 ft 498 kts 267°
2026-05-07 23:05 55.44844 -173.60845 37991 ft 499 kts 266°
2026-05-07 23:05 55.44455 -173.73038 37989 ft 498 kts 266°
2026-05-07 23:06 55.44056 -173.85152 37991 ft 497 kts 266°
2026-05-07 23:06 55.43643 -173.97325 37994 ft 498 kts 266°
2026-05-07 23:07 55.43217 -174.09505 37979 ft 499 kts 266°
2026-05-07 23:07 55.42779 -174.21689 37979 ft 498 kts 266°
2026-05-07 23:08 55.42329 -174.33870 37981 ft 498 kts 266°
2026-05-07 23:08 55.41868 -174.46041 37986 ft 499 kts 265°
2026-05-07 23:09 55.41395 -174.58203 37985 ft 497 kts 265°
2026-05-07 23:09 55.40909 -174.70366 37986 ft 498 kts 265°
2026-05-07 23:10 55.40412 -174.82509 37978 ft 498 kts 265°
2026-05-07 23:10 55.39902 -174.94657 37982 ft 497 kts 264°
2026-05-07 23:11 55.39384 -175.06717 37980 ft 497 kts 264°
2026-05-07 23:11 55.38849 -175.18856 37979 ft 498 kts 264°
2026-05-07 23:12 55.38303 -175.31002 37979 ft 498 kts 264°
2026-05-07 23:12 55.37745 -175.43157 37969 ft 497 kts 263°
2026-05-07 23:13 55.37176 -175.55284 37971 ft 497 kts 263°
2026-05-07 23:13 55.36594 -175.67407 37965 ft 498 kts 264°
2026-05-07 23:14 55.36005 -175.79452 37965 ft 498 kts 263°
2026-05-07 23:14 55.35400 -175.91588 37961 ft 498 kts 262°
2026-05-07 23:15 55.34782 -176.03705 37965 ft 498 kts 263°
2026-05-07 23:15 55.34153 -176.15823 37971 ft 498 kts 263°
2026-05-07 23:16 55.33509 -176.27970 37965 ft 499 kts 262°
2026-05-07 23:16 55.32854 -176.40095 37963 ft 498 kts 262°
2026-05-07 23:17 55.32188 -176.52217 37961 ft 498 kts 262°
2026-05-07 23:17 55.31509 -176.64341 37951 ft 499 kts 262°
2026-05-07 23:18 55.30819 -176.76449 37949 ft 499 kts 262°
2026-05-07 23:18 55.30120 -176.88496 37953 ft 499 kts 262°
2026-05-07 23:19 55.29404 -177.00623 37946 ft 499 kts 262°
2026-05-07 23:19 55.28676 -177.12746 37952 ft 499 kts 262°
2026-05-07 23:20 55.27936 -177.24875 37958 ft 499 kts 262°
2026-05-07 23:20 55.27183 -177.37002 37946 ft 500 kts 261°
2026-05-07 23:21 55.26418 -177.49138 37949 ft 501 kts 261°
2026-05-07 23:21 55.25645 -177.61196 37943 ft 501 kts 261°
2026-05-07 23:22 55.24854 -177.73339 37944 ft 500 kts 261°
2026-05-07 23:22 55.24053 -177.85458 37947 ft 501 kts 261°
2026-05-07 23:23 55.23236 -177.97623 37941 ft 503 kts 261°
2026-05-07 23:23 55.22405 -178.09814 37941 ft 503 kts 260°
2026-05-07 23:24 55.21569 -178.21908 37942 ft 503 kts 260°
2026-05-07 23:24 55.20714 -178.34093 37938 ft 503 kts 260°
2026-05-07 23:25 55.19846 -178.46281 37938 ft 504 kts 260°
2026-05-07 23:25 55.19648 -178.58526 37935 ft 509 kts 271°
2026-05-07 23:26 55.20256 -178.70892 37933 ft 510 kts 273°
2026-05-07 23:26 55.20987 -178.83274 37933 ft 511 kts 273°
2026-05-07 23:27 55.22056 -179.01797 37933 ft 511 kts 273°
2026-05-07 23:27 55.22737 -179.14220 37927 ft 511 kts 272°
2026-05-07 23:28 55.23400 -179.26642 37930 ft 511 kts 272°
2026-05-07 23:28 55.24046 -179.38993 37930 ft 511 kts 272°
2026-05-07 23:29 55.24685 -179.51420 37927 ft 511 kts 272°
2026-05-07 23:29 55.25312 -179.63875 37928 ft 511 kts 272°
2026-05-07 23:30 55.25923 -179.76254 37930 ft 511 kts 272°
2026-05-07 23:30 55.26521 -179.88636 37929 ft 511 kts 272°
2026-05-07 23:31 55.27110 179.98911 37947 ft 511 kts 272°
2026-05-07 23:31 55.27683 179.86539 37933 ft 511 kts 271°
2026-05-07 23:32 55.28246 179.74088 37925 ft 511 kts 271°
2026-05-07 23:32 55.28794 179.61708 37924 ft 511 kts 271°
2026-05-07 23:33 55.29332 179.49231 37927 ft 511 kts 271°
2026-05-07 23:33 55.29857 179.36776 37928 ft 511 kts 271°
2026-05-07 23:34 55.30368 179.24358 37923 ft 511 kts 271°
2026-05-07 23:34 55.30865 179.11967 37923 ft 511 kts 271°
2026-05-07 23:35 55.31352 178.99504 37924 ft 511 kts 271°
2026-05-07 23:35 55.31827 178.87027 37935 ft 511 kts 271°
2026-05-07 23:36 55.32257 178.74599 37919 ft 511 kts 268°
2026-05-07 23:36 55.32051 178.62130 37916 ft 509 kts 264°
2026-05-07 23:37 55.31678 178.49757 37920 ft 509 kts 263°
2026-05-07 23:37 55.31262 178.37324 37918 ft 509 kts 263°
2026-05-07 23:38 55.30840 178.24879 37925 ft 509 kts 263°
2026-05-07 23:38 55.30416 178.12533 37914 ft 510 kts 263°
2026-05-07 23:39 55.29980 178.00121 37918 ft 510 kts 263°
2026-05-07 23:39 55.29530 177.87662 37920 ft 510 kts 263°
2026-05-07 23:40 55.29071 177.75329 37931 ft 509 kts 263°
2026-05-07 23:40 55.28597 177.62933 37912 ft 509 kts 263°
2026-05-07 23:41 55.28109 177.50499 37915 ft 509 kts 263°
2026-05-07 23:41 55.27612 177.38168 37916 ft 509 kts 263°
2026-05-07 23:42 55.27187 177.27850 37915 ft 509 kts 263°
2026-05-07 23:42 55.26579 177.13466 37916 ft 508 kts 263°
2026-05-07 23:43 55.26134 177.03181 37913 ft 508 kts 263°
2026-05-07 23:43 55.25498 176.88809 37913 ft 508 kts 262°
2026-05-07 23:44 55.25032 176.78529 37914 ft 507 kts 262°
2026-05-07 23:44 55.24461 176.66184 37921 ft 507 kts 262°
2026-05-07 23:45 55.23882 176.53907 37913 ft 506 kts 262°
2026-05-07 23:45 55.23288 176.41598 37908 ft 506 kts 262°
2026-05-07 23:46 55.22681 176.29283 37908 ft 506 kts 262°
2026-05-07 23:46 55.22066 176.17053 37908 ft 506 kts 262°
2026-05-07 23:47 55.21433 176.04739 37908 ft 505 kts 262°
2026-05-07 23:47 55.20794 175.92547 37903 ft 505 kts 262°
2026-05-07 23:48 55.20140 175.80279 37905 ft 505 kts 262°
2026-05-07 23:48 55.19478 175.68116 37906 ft 505 kts 262°
2026-05-07 23:49 55.18800 175.55880 37909 ft 504 kts 262°
2026-05-07 23:49 55.18110 175.43653 37903 ft 504 kts 262°
2026-05-07 23:50 55.17413 175.31523 37900 ft 503 kts 262°
2026-05-07 23:50 55.16702 175.19344 37900 ft 501 kts 262°
2026-05-07 23:51 55.15979 175.07197 37898 ft 501 kts 262°
2026-05-07 23:51 55.15250 174.95137 37897 ft 501 kts 262°
2026-05-07 23:52 55.14503 174.82992 37897 ft 501 kts 262°
2026-05-07 23:52 55.13744 174.70847 37897 ft 501 kts 261°
2026-05-07 23:53 55.12977 174.58772 37900 ft 501 kts 261°
2026-05-07 23:53 55.12194 174.46647 37904 ft 500 kts 261°
2026-05-07 23:54 55.11407 174.34625 37898 ft 500 kts 261°
2026-05-07 23:54 55.10603 174.22550 37893 ft 499 kts 261°
2026-05-07 23:55 55.09791 174.10543 37895 ft 499 kts 261°
2026-05-07 23:55 55.08962 173.98457 37890 ft 499 kts 261°
2026-05-07 23:56 55.08129 173.86494 37892 ft 499 kts 261°
2026-05-07 23:56 55.07279 173.74455 37888 ft 498 kts 261°
2026-05-07 23:57 55.06417 173.62421 37886 ft 498 kts 261°
2026-05-07 23:57 55.05550 173.50488 37880 ft 498 kts 261°
2026-05-07 23:58 55.04665 173.38470 37890 ft 498 kts 261°
2026-05-07 23:58 55.03775 173.26553 37887 ft 496 kts 261°
2026-05-07 23:59 55.02871 173.14600 37881 ft 496 kts 261°
2026-05-07 23:59 55.01960 173.02732 37880 ft 496 kts 261°
2026-05-08 00:00 55.01034 172.90808 37884 ft 496 kts 261°
2026-05-08 00:00 55.00102 172.78966 37882 ft 495 kts 261°
2026-05-08 00:01 54.99154 172.67085 37878 ft 494 kts 261°
2026-05-08 00:01 54.98195 172.55200 37878 ft 494 kts 260°
2026-05-08 00:02 54.97230 172.43396 37880 ft 494 kts 260°
2026-05-08 00:02 54.96247 172.31529 37882 ft 494 kts 260°
2026-05-08 00:03 54.95259 172.19731 37875 ft 494 kts 260°
2026-05-08 00:03 54.94248 172.07918 37867 ft 493 kts 259°
2026-05-08 00:04 54.92187 171.96591 38059 ft 489 kts 242°
2026-05-08 00:04 54.90475 171.91588 38239 ft 487 kts 233°
2026-05-08 00:04 54.88447 171.86875 38413 ft 486 kts 231°
2026-05-08 00:05 54.86331 171.82289 38555 ft 485 kts 230°
2026-05-08 00:05 54.84175 171.77772 38694 ft 484 kts 229°
2026-05-08 00:05 54.79842 171.68814 38853 ft 485 kts 229°
2026-05-08 00:06 54.75523 171.59843 38871 ft 487 kts 230°
2026-05-08 00:06 54.71184 171.50793 38868 ft 487 kts 230°
2026-05-08 00:07 54.66853 171.41771 38867 ft 486 kts 230°
2026-05-08 00:07 54.62561 171.32862 38869 ft 485 kts 230°
2026-05-08 00:08 54.58230 171.23908 38866 ft 485 kts 230°
2026-05-08 00:08 54.53917 171.15024 38863 ft 485 kts 230°
2026-05-08 00:09 54.49577 171.06119 38862 ft 485 kts 230°
2026-05-08 00:09 54.45234 170.97239 38860 ft 485 kts 230°
2026-05-08 00:10 54.40879 170.88367 38864 ft 485 kts 230°
2026-05-08 00:10 54.36552 170.79586 38859 ft 483 kts 230°
2026-05-08 00:11 54.32202 170.70788 38857 ft 483 kts 230°
2026-05-08 00:11 54.27871 170.62058 38857 ft 483 kts 230°
2026-05-08 00:12 54.23508 170.53297 38854 ft 483 kts 230°
2026-05-08 00:12 54.19138 170.44553 38854 ft 483 kts 230°
2026-05-08 00:13 54.14792 170.35889 38849 ft 482 kts 230°
2026-05-08 00:13 54.10414 170.27190 38835 ft 482 kts 230°
2026-05-08 00:14 54.06036 170.18520 38842 ft 481 kts 230°
2026-05-08 00:14 54.01664 170.09895 38843 ft 481 kts 230°
2026-05-08 00:15 53.97312 170.01339 38846 ft 481 kts 230°
2026-05-08 00:15 53.92928 169.92749 38845 ft 481 kts 230°
2026-05-08 00:16 53.88558 169.84217 38837 ft 481 kts 230°
2026-05-08 00:16 53.84164 169.75669 38837 ft 481 kts 230°
2026-05-08 00:17 53.79759 169.67128 38827 ft 481 kts 230°
2026-05-08 00:17 53.75358 169.58625 38840 ft 479 kts 230°
2026-05-08 00:18 53.70984 169.50205 38838 ft 479 kts 230°
2026-05-08 00:18 53.66576 169.41746 38837 ft 478 kts 230°
2026-05-08 00:19 53.62458 169.33041 38832 ft 476 kts 239°
2026-05-08 00:19 53.59156 169.23354 38832 ft 476 kts 242°
2026-05-08 00:20 53.56042 169.13596 38829 ft 476 kts 243°
2026-05-08 00:20 53.52923 169.03780 38832 ft 475 kts 243°
2026-05-08 00:21 53.49794 168.94034 38826 ft 474 kts 242°
2026-05-08 00:21 53.46639 168.84288 38826 ft 474 kts 242°
2026-05-08 00:22 53.43472 168.74555 38821 ft 474 kts 242°
2026-05-08 00:22 53.40318 168.64899 38822 ft 474 kts 242°
2026-05-08 00:23 53.37143 168.55217 38818 ft 473 kts 242°
2026-05-08 00:23 53.33961 168.45551 38817 ft 473 kts 242°
2026-05-08 00:24 53.30802 168.35989 38816 ft 473 kts 242°
2026-05-08 00:24 53.27606 168.26375 38816 ft 473 kts 242°
2026-05-08 00:25 53.24393 168.16763 38810 ft 473 kts 242°
2026-05-08 00:25 53.21199 168.07247 38809 ft 471 kts 242°
2026-05-08 00:26 53.17985 167.97704 38805 ft 471 kts 242°
2026-05-08 00:26 53.14763 167.88171 38800 ft 471 kts 242°
2026-05-08 00:27 53.11555 167.78716 38799 ft 470 kts 242°
2026-05-08 00:27 53.08325 167.69236 38799 ft 469 kts 242°
2026-05-08 00:28 53.05105 167.59823 38801 ft 468 kts 242°
2026-05-08 00:28 53.01879 167.50424 38796 ft 468 kts 242°
2026-05-08 00:29 52.98664 167.41090 38798 ft 468 kts 242°
2026-05-08 00:29 52.95966 167.33287 38799 ft 468 kts 242°
2026-05-08 00:30 52.92721 167.23933 38801 ft 468 kts 242°
2026-05-08 00:30 52.89467 167.14592 38796 ft 467 kts 242°
2026-05-08 00:31 52.86234 167.05341 38796 ft 467 kts 242°
2026-05-08 00:31 52.82966 166.96027 38796 ft 467 kts 242°
2026-05-08 00:32 52.79718 166.86804 38796 ft 467 kts 242°
2026-05-08 00:32 52.76437 166.77523 38795 ft 466 kts 242°
2026-05-08 00:33 52.73168 166.68310 38791 ft 463 kts 242°
2026-05-08 00:33 52.69904 166.59145 38787 ft 462 kts 242°
2026-05-08 00:34 52.66660 166.50068 38795 ft 462 kts 242°
2026-05-08 00:34 52.63384 166.40931 38794 ft 462 kts 242°
2026-05-08 00:35 52.60104 166.31822 38791 ft 461 kts 242°
2026-05-08 00:35 52.56843 166.22795 38790 ft 461 kts 242°
2026-05-08 00:36 52.53559 166.13740 38796 ft 461 kts 242°
2026-05-08 00:36 52.50282 166.04734 38796 ft 461 kts 242°
2026-05-08 00:37 52.46987 165.95712 38796 ft 461 kts 242°
2026-05-08 00:38 52.42029 165.82198 38792 ft 459 kts 242°
2026-05-08 00:38 52.38741 165.73273 38777 ft 459 kts 242°
2026-05-08 00:39 52.35431 165.64323 38796 ft 458 kts 242°
2026-05-08 00:39 52.32143 165.55464 38797 ft 457 kts 242°
2026-05-08 00:40 52.28833 165.46574 38796 ft 457 kts 242°
2026-05-08 00:40 52.25513 165.37689 38797 ft 457 kts 242°
2026-05-08 00:41 52.22205 165.28867 38802 ft 457 kts 242°
2026-05-08 00:41 52.18867 165.19998 38801 ft 457 kts 241°
2026-05-08 00:42 52.15553 165.11220 38800 ft 457 kts 241°
2026-05-08 00:42 52.12213 165.02409 38799 ft 456 kts 241°
2026-05-08 00:43 52.08877 164.93637 38802 ft 455 kts 241°
2026-05-08 00:43 52.05561 164.84944 38803 ft 455 kts 241°
2026-05-08 00:44 52.02211 164.76195 38807 ft 455 kts 241°
2026-05-08 00:44 51.98883 164.67536 38802 ft 453 kts 241°
2026-05-08 00:45 51.95544 164.58875 38802 ft 450 kts 241°
2026-05-08 00:45 51.92215 164.50265 38805 ft 450 kts 241°
2026-05-08 00:46 51.88896 164.41710 38804 ft 450 kts 241°
2026-05-08 00:46 51.85555 164.33130 38804 ft 450 kts 241°
2026-05-08 00:47 51.82233 164.24627 38790 ft 450 kts 241°
2026-05-08 00:47 51.78886 164.16091 38809 ft 448 kts 241°
2026-05-08 00:48 51.75531 164.07559 38806 ft 448 kts 241°
2026-05-08 00:48 51.72178 163.99061 38807 ft 448 kts 241°
2026-05-08 00:49 51.68835 163.90618 38807 ft 448 kts 241°
2026-05-08 00:49 51.65470 163.82147 38806 ft 448 kts 241°
2026-05-08 00:50 51.62098 163.73691 38888 ft 446 kts 241°
2026-05-08 00:50 51.60447 163.69561 39096 ft 444 kts 241°
2026-05-08 00:50 51.58776 163.65386 39201 ft 444 kts 241°
2026-05-08 00:51 51.55422 163.57016 39364 ft 445 kts 241°
2026-05-08 00:51 51.52061 163.48659 39524 ft 445 kts 241°
2026-05-08 00:52 51.48686 163.40295 39698 ft 445 kts 240°
2026-05-08 00:52 51.45325 163.31996 39809 ft 447 kts 240°
2026-05-08 00:53 51.41925 163.23628 39813 ft 447 kts 240°
2026-05-08 00:53 51.38539 163.15322 39812 ft 447 kts 240°
2026-05-08 00:54 51.35130 163.06984 39808 ft 447 kts 240°
2026-05-08 00:54 51.31733 162.98704 39811 ft 445 kts 240°
2026-05-08 00:55 51.28327 162.90428 39811 ft 445 kts 240°
2026-05-08 00:55 51.24914 162.82162 39799 ft 445 kts 240°
2026-05-08 00:56 51.21529 162.73991 39811 ft 442 kts 240°
2026-05-08 00:56 51.18132 162.65815 39813 ft 441 kts 240°
2026-05-08 00:57 51.14739 162.57672 39815 ft 440 kts 240°
2026-05-08 00:57 51.11371 162.49615 39814 ft 439 kts 240°
2026-05-08 00:58 51.07973 162.41511 39814 ft 439 kts 240°
2026-05-08 00:58 51.04572 162.33426 39813 ft 439 kts 240°
2026-05-08 00:59 51.01184 162.25397 39812 ft 439 kts 240°
2026-05-08 00:59 50.97775 162.17347 39816 ft 438 kts 240°
2026-05-08 01:00 50.94366 162.09317 39821 ft 437 kts 240°
2026-05-08 01:00 50.90984 162.01375 39819 ft 437 kts 240°
2026-05-08 01:01 50.87569 161.93380 39821 ft 437 kts 240°
2026-05-08 01:01 50.84153 161.85418 39831 ft 435 kts 240°
2026-05-08 01:02 50.80779 161.77571 39810 ft 432 kts 240°
2026-05-08 01:02 50.77393 161.69712 39830 ft 432 kts 240°
2026-05-08 01:03 50.74004 161.61870 39826 ft 432 kts 240°
2026-05-08 01:03 50.70628 161.54083 39814 ft 432 kts 240°
2026-05-08 01:04 50.67221 161.46252 39813 ft 432 kts 240°
2026-05-08 01:04 50.63832 161.38484 39830 ft 432 kts 240°
2026-05-08 01:05 50.60421 161.30688 39830 ft 432 kts 240°
2026-05-08 01:05 50.57001 161.22897 39813 ft 432 kts 240°
2026-05-08 01:06 50.53598 161.15167 39835 ft 432 kts 240°
2026-05-08 01:06 50.50164 161.07388 39830 ft 432 kts 240°
2026-05-08 01:07 50.46749 160.99681 39818 ft 430 kts 240°
2026-05-08 01:07 50.43342 160.92014 39827 ft 427 kts 240°
2026-05-08 01:08 50.39946 160.84387 39833 ft 426 kts 240°
2026-05-08 01:08 50.36565 160.76812 39832 ft 426 kts 240°
2026-05-08 01:09 50.33154 160.69198 39830 ft 425 kts 240°
2026-05-08 01:09 50.29748 160.61618 39829 ft 424 kts 240°
2026-05-08 01:10 50.26366 160.54112 39830 ft 424 kts 240°
2026-05-08 01:10 50.22958 160.46567 39839 ft 424 kts 240°
2026-05-08 01:11 50.19539 160.39023 39837 ft 424 kts 240°
2026-05-08 01:11 50.16129 160.31540 39842 ft 424 kts 240°
2026-05-08 01:12 50.12718 160.24102 39836 ft 423 kts 240°
2026-05-08 01:12 50.09286 160.16633 39805 ft 423 kts 240°
2026-05-08 01:13 50.05870 160.09223 39839 ft 417 kts 240°
2026-05-08 01:13 50.02505 160.01939 39843 ft 416 kts 240°
2026-05-08 01:14 49.99128 159.94644 39841 ft 413 kts 240°
2026-05-08 01:14 49.95782 159.87439 39843 ft 412 kts 240°
2026-05-08 01:15 49.92410 159.80195 39845 ft 412 kts 240°
2026-05-08 01:15 49.89061 159.73021 39848 ft 412 kts 240°
2026-05-08 01:16 49.85692 159.65825 39847 ft 412 kts 240°
2026-05-08 01:16 49.82320 159.58641 39846 ft 413 kts 239°
2026-05-08 01:17 49.78932 159.51443 39846 ft 413 kts 239°
2026-05-08 01:17 49.76107 159.45460 39848 ft 413 kts 239°
2026-05-08 01:18 49.72153 159.37105 39847 ft 413 kts 239°
2026-05-08 01:18 49.69314 159.31156 39853 ft 414 kts 239°
2026-05-08 01:19 49.65840 159.24064 39853 ft 414 kts 238°
2026-05-08 01:19 49.62345 159.16984 39852 ft 413 kts 238°
2026-05-08 01:20 49.58866 159.09929 39852 ft 413 kts 238°
2026-05-08 01:20 49.55403 159.02911 39853 ft 413 kts 238°
2026-05-08 01:21 49.51914 158.95856 39852 ft 413 kts 238°
2026-05-08 01:21 49.48452 158.88873 39859 ft 412 kts 238°
2026-05-08 01:22 49.44963 158.81858 39860 ft 412 kts 238°
2026-05-08 01:22 49.41473 158.74855 39859 ft 412 kts 238°
2026-05-08 01:23 49.38000 158.67908 39858 ft 412 kts 238°
2026-05-08 01:23 49.34494 158.60912 39862 ft 412 kts 238°
2026-05-08 01:24 49.31020 158.54001 39857 ft 409 kts 238°
2026-05-08 01:24 49.27555 158.47129 39865 ft 406 kts 238°
2026-05-08 01:25 49.24105 158.40295 39864 ft 405 kts 238°
2026-05-08 01:25 49.20649 158.33466 39867 ft 405 kts 238°
2026-05-08 01:26 49.17210 158.26690 39866 ft 405 kts 238°
2026-05-08 01:26 49.13739 158.19872 39870 ft 405 kts 238°
2026-05-08 01:27 49.10278 158.13090 39872 ft 404 kts 238°
2026-05-08 01:27 49.06831 158.06352 39876 ft 404 kts 238°
2026-05-08 01:28 49.03362 157.99587 39873 ft 404 kts 238°
2026-05-08 01:28 48.99911 157.92874 39876 ft 404 kts 238°
2026-05-08 01:29 48.96430 157.86121 39880 ft 405 kts 238°
2026-05-08 01:29 48.92960 157.79405 39859 ft 404 kts 238°
2026-05-08 01:30 48.89503 157.72735 39875 ft 401 kts 238°
2026-05-08 01:30 48.86044 157.66077 39880 ft 401 kts 238°
2026-05-08 01:31 48.82577 157.59416 39868 ft 401 kts 238°
2026-05-08 01:31 48.79137 157.52823 39880 ft 400 kts 238°
2026-05-08 01:32 48.75674 157.46205 39884 ft 400 kts 238°
2026-05-08 01:32 48.72215 157.39610 39881 ft 400 kts 238°
2026-05-08 01:33 48.68768 157.33053 39887 ft 400 kts 238°
2026-05-08 01:33 48.65299 157.26472 39879 ft 400 kts 238°
2026-05-08 01:34 48.61844 157.19935 39888 ft 399 kts 238°
2026-05-08 01:34 48.58372 157.13380 39887 ft 399 kts 238°
2026-05-08 01:35 48.54899 157.06838 39849 ft 398 kts 238°
2026-05-08 01:35 48.51452 157.00364 39890 ft 396 kts 238°
2026-05-08 01:36 48.47994 156.93885 39885 ft 395 kts 238°
2026-05-08 01:36 48.44561 156.87464 39894 ft 394 kts 238°
2026-05-08 01:37 48.41113 156.81033 39891 ft 394 kts 238°
2026-05-08 01:37 48.37662 156.74611 39892 ft 394 kts 238°
2026-05-08 01:38 48.34232 156.68243 39899 ft 394 kts 238°
2026-05-08 01:38 48.30771 156.61832 39876 ft 394 kts 238°
2026-05-08 01:39 48.27315 156.55451 39898 ft 392 kts 238°
2026-05-08 01:39 48.23894 156.49145 39898 ft 392 kts 238°
2026-05-08 01:40 48.20444 156.42798 39897 ft 392 kts 238°
2026-05-08 01:40 48.16990 156.36461 39897 ft 392 kts 238°
2026-05-08 01:41 48.13563 156.30190 39891 ft 390 kts 238°
2026-05-08 01:41 48.10135 156.23933 39900 ft 389 kts 238°
2026-05-08 01:42 48.06694 156.17663 39900 ft 389 kts 238°
2026-05-08 01:42 48.03253 156.11408 39900 ft 389 kts 238°
2026-05-08 01:43 47.99828 156.05198 39898 ft 389 kts 238°
2026-05-08 01:43 47.96376 155.98951 39894 ft 389 kts 237°
2026-05-08 01:44 47.92925 155.92724 39902 ft 388 kts 237°
2026-05-08 01:44 47.89498 155.86553 39903 ft 388 kts 237°
2026-05-08 01:45 47.86056 155.80368 39905 ft 388 kts 237°
2026-05-08 01:45 47.82599 155.74172 39905 ft 388 kts 237°
2026-05-08 01:46 47.79160 155.68021 39897 ft 388 kts 237°
2026-05-08 01:46 47.75704 155.61855 39901 ft 387 kts 237°
2026-05-08 01:47 47.72251 155.55709 39915 ft 386 kts 237°
2026-05-08 01:47 47.68820 155.49614 39921 ft 387 kts 237°
2026-05-08 01:48 47.63627 155.40415 39918 ft 387 kts 237°
2026-05-08 01:48 47.60185 155.34336 39911 ft 386 kts 237°
2026-05-08 01:49 47.56722 155.28233 39909 ft 386 kts 237°
2026-05-08 01:49 47.53258 155.22143 39906 ft 386 kts 237°
2026-05-08 01:50 47.49787 155.16053 39916 ft 386 kts 237°
2026-05-08 01:50 47.46337 155.10013 39912 ft 387 kts 237°
2026-05-08 01:51 47.42853 155.03929 39905 ft 387 kts 237°
2026-05-08 01:51 47.39394 154.97900 39879 ft 386 kts 237°
2026-05-08 01:52 47.35911 154.91844 39910 ft 387 kts 237°
2026-05-08 01:52 47.32411 154.85772 39911 ft 387 kts 237°
2026-05-08 01:53 47.28918 154.79726 39911 ft 387 kts 237°
2026-05-08 01:53 47.25438 154.73718 39912 ft 387 kts 237°
2026-05-08 01:54 47.21929 154.67669 39911 ft 387 kts 236°
2026-05-08 01:54 47.18449 154.61685 39910 ft 387 kts 236°
2026-05-08 01:55 47.14937 154.55660 39911 ft 387 kts 236°
2026-05-08 01:55 47.11420 154.49641 39911 ft 387 kts 236°
2026-05-08 01:56 47.07908 154.43641 39911 ft 387 kts 236°
2026-05-08 01:56 47.04409 154.37679 39913 ft 387 kts 236°
2026-05-08 01:57 47.00890 154.31695 39879 ft 387 kts 236°
2026-05-08 01:57 46.97386 154.25749 39915 ft 387 kts 236°
2026-05-08 01:58 46.93856 154.19772 39906 ft 387 kts 236°
2026-05-08 01:58 46.90321 154.13800 39917 ft 387 kts 236°
2026-05-08 01:59 46.86806 154.07874 39917 ft 387 kts 236°
2026-05-08 01:59 46.83261 154.01911 39917 ft 387 kts 236°
2026-05-08 02:00 46.79721 153.95971 39919 ft 387 kts 236°
2026-05-08 02:00 46.76202 153.90078 39919 ft 387 kts 236°
2026-05-08 02:01 46.72662 153.84161 39921 ft 387 kts 236°
2026-05-08 02:01 46.69111 153.78241 39917 ft 387 kts 235°
2026-05-08 02:02 46.65580 153.72367 39917 ft 387 kts 235°
2026-05-08 02:02 46.62033 153.66477 39901 ft 387 kts 235°
2026-05-08 02:03 46.58489 153.60606 39913 ft 387 kts 235°
2026-05-08 02:03 46.54926 153.54716 39907 ft 387 kts 235°
2026-05-08 02:04 46.51387 153.48879 39910 ft 387 kts 235°
2026-05-08 02:04 46.47826 153.43018 39911 ft 386 kts 235°
2026-05-08 02:05 46.44285 153.37201 39912 ft 386 kts 235°
2026-05-08 02:05 46.40714 153.31349 39910 ft 386 kts 234°
2026-05-08 02:06 46.37170 153.25553 39908 ft 386 kts 234°
2026-05-08 02:06 46.33602 153.19730 39909 ft 386 kts 234°
2026-05-08 02:07 46.30638 153.14903 39904 ft 386 kts 234°
2026-05-08 02:07 46.27070 153.09102 39910 ft 386 kts 234°
2026-05-08 02:08 46.23489 153.03294 39847 ft 387 kts 234°
2026-05-08 02:08 46.19913 152.97512 40047 ft 388 kts 234°
2026-05-08 02:09 46.16280 152.91709 40210 ft 390 kts 234°
2026-05-08 02:09 46.12627 152.85903 40394 ft 391 kts 233°
2026-05-08 02:10 46.08988 152.80121 40542 ft 392 kts 233°
2026-05-08 02:10 46.05311 152.74287 40719 ft 393 kts 233°
2026-05-08 02:11 46.01620 152.68442 40864 ft 394 kts 233°
2026-05-08 02:11 45.97938 152.62624 40897 ft 395 kts 233°
2026-05-08 02:12 45.94223 152.56768 40895 ft 395 kts 233°
2026-05-08 02:12 45.90534 152.50963 40904 ft 395 kts 233°
2026-05-08 02:13 45.86818 152.45130 40903 ft 395 kts 233°
2026-05-08 02:13 45.83129 152.39349 40885 ft 395 kts 233°
2026-05-08 02:14 45.79406 152.33529 40882 ft 395 kts 233°
2026-05-08 02:14 45.75709 152.27761 40898 ft 395 kts 233°
2026-05-08 02:15 45.71980 152.21955 40893 ft 395 kts 233°
2026-05-08 02:15 45.68251 152.16163 40893 ft 395 kts 233°
2026-05-08 02:16 45.64551 152.10427 40892 ft 395 kts 233°
2026-05-08 02:16 45.60807 152.04635 40889 ft 395 kts 233°
2026-05-08 02:17 45.57093 151.98902 40889 ft 395 kts 233°
2026-05-08 02:17 45.53353 151.93140 40887 ft 395 kts 232°
2026-05-08 02:18 45.49610 151.87386 40864 ft 395 kts 232°
2026-05-08 02:18 45.45853 151.81621 40883 ft 397 kts 232°
2026-05-08 02:19 45.42112 151.75894 40886 ft 397 kts 232°
2026-05-08 02:19 45.38339 151.70130 40881 ft 397 kts 232°
2026-05-08 02:20 45.34564 151.64377 40880 ft 397 kts 232°
2026-05-08 02:20 45.30809 151.58666 40874 ft 397 kts 232°
2026-05-08 02:21 45.27029 151.52926 40874 ft 397 kts 232°
2026-05-08 02:21 45.23270 151.47233 40871 ft 397 kts 232°
2026-05-08 02:22 45.19486 151.41511 40873 ft 397 kts 232°
2026-05-08 02:22 45.15709 151.35815 40872 ft 397 kts 232°
2026-05-08 02:23 45.11942 151.30143 40849 ft 396 kts 232°
2026-05-08 02:23 45.08146 151.24439 40867 ft 398 kts 232°
2026-05-08 02:24 45.04366 151.18772 40865 ft 397 kts 231°
2026-05-08 02:24 45.00563 151.13083 40865 ft 397 kts 231°
2026-05-08 02:25 44.96760 151.07405 40865 ft 397 kts 231°
2026-05-08 02:25 44.92974 151.01764 40861 ft 397 kts 231°
2026-05-08 02:26 44.89167 150.96103 40852 ft 397 kts 231°
2026-05-08 02:26 44.85351 150.90440 40856 ft 397 kts 231°
2026-05-08 02:27 44.81560 150.84827 40857 ft 397 kts 231°
2026-05-08 02:27 44.77739 150.79181 40856 ft 397 kts 231°
2026-05-08 02:28 44.73922 150.73552 40855 ft 398 kts 231°
2026-05-08 02:28 44.70106 150.67932 40851 ft 399 kts 231°
2026-05-08 02:29 44.66265 150.62293 40848 ft 399 kts 231°
2026-05-08 02:29 44.62439 150.56686 40847 ft 399 kts 231°
2026-05-08 02:30 44.58596 150.51064 40840 ft 399 kts 231°
2026-05-08 02:30 44.54745 150.45442 40846 ft 398 kts 230°
2026-05-08 02:31 44.50916 150.39864 40838 ft 398 kts 230°
2026-05-08 02:31 44.47064 150.34263 40837 ft 398 kts 230°
2026-05-08 02:32 44.43207 150.28668 40837 ft 398 kts 230°
2026-05-08 02:32 44.39375 150.23118 40827 ft 398 kts 230°
2026-05-08 02:33 44.35501 150.17520 40835 ft 401 kts 230°
2026-05-08 02:33 44.31626 150.11930 40831 ft 402 kts 230°
2026-05-08 02:34 44.27731 150.06325 40829 ft 402 kts 230°
2026-05-08 02:34 44.23847 150.00748 40829 ft 402 kts 230°
2026-05-08 02:35 44.19949 149.95161 40831 ft 401 kts 230°
2026-05-08 02:35 44.16054 149.89590 40829 ft 401 kts 230°
2026-05-08 02:36 44.12151 149.84017 40826 ft 401 kts 230°
2026-05-08 02:36 44.08271 149.78489 40826 ft 401 kts 230°
2026-05-08 02:37 44.04377 149.72951 40826 ft 400 kts 229°
2026-05-08 02:37 44.00474 149.67413 40827 ft 401 kts 229°
2026-05-08 02:38 43.96588 149.61909 40828 ft 402 kts 229°
2026-05-08 02:38 43.92664 149.56363 40827 ft 402 kts 229°
2026-05-08 02:39 43.88741 149.50830 40824 ft 402 kts 229°
2026-05-08 02:39 43.84841 149.45339 40822 ft 402 kts 229°
2026-05-08 02:40 43.80913 149.39821 40822 ft 402 kts 229°
2026-05-08 02:40 43.76981 149.34307 40829 ft 402 kts 229°
2026-05-08 02:41 43.73069 149.28831 40821 ft 402 kts 229°
2026-05-08 02:41 43.69131 149.23332 40819 ft 401 kts 229°
2026-05-08 02:42 43.65189 149.17838 40792 ft 401 kts 229°
2026-05-08 02:42 43.61265 149.12378 40818 ft 403 kts 229°
2026-05-08 02:43 43.57302 149.06875 40817 ft 403 kts 229°
2026-05-08 02:43 43.53361 149.01415 40816 ft 403 kts 228°
2026-05-08 02:44 43.49388 148.95920 40817 ft 403 kts 228°
2026-05-08 02:44 43.45444 148.90476 40817 ft 403 kts 228°
2026-05-08 02:45 43.41471 148.85004 40822 ft 403 kts 228°
2026-05-08 02:45 43.37500 148.79545 40818 ft 403 kts 228°
2026-05-08 02:46 43.33557 148.74135 40815 ft 402 kts 228°
2026-05-08 02:46 43.29584 148.68694 40788 ft 402 kts 228°
2026-05-08 02:47 43.25598 148.63245 40816 ft 404 kts 228°
2026-05-08 02:47 43.21628 148.57829 40815 ft 404 kts 228°
2026-05-08 02:48 43.17631 148.52388 40813 ft 404 kts 228°
2026-05-08 02:48 43.13657 148.46990 40815 ft 404 kts 228°
2026-05-08 02:49 43.09656 148.41563 40815 ft 404 kts 228°
2026-05-08 02:49 43.05646 148.36136 40811 ft 404 kts 228°
2026-05-08 02:50 43.01665 148.30759 40814 ft 404 kts 228°
2026-05-08 02:50 42.97661 148.25359 40813 ft 404 kts 227°
2026-05-08 02:51 42.93678 148.20000 40777 ft 404 kts 227°
2026-05-08 02:51 42.89662 148.14606 40813 ft 405 kts 227°
2026-05-08 02:52 42.85638 148.09211 40815 ft 405 kts 227°
2026-05-08 02:52 42.81644 148.03868 40813 ft 405 kts 227°
2026-05-08 02:53 42.77615 147.98489 40812 ft 405 kts 227°
2026-05-08 02:53 42.73584 147.93116 40812 ft 404 kts 227°
2026-05-08 02:54 42.69581 147.87791 40812 ft 404 kts 227°
2026-05-08 02:54 42.65559 147.82452 40814 ft 404 kts 227°
2026-05-08 02:55 42.59537 147.74474 40816 ft 404 kts 227°
2026-05-08 02:56 42.56187 147.70049 40805 ft 404 kts 227°
2026-05-08 02:56 42.51487 147.63847 40818 ft 406 kts 227°
2026-05-08 02:57 42.48087 147.59371 40819 ft 406 kts 227°
2026-05-08 02:57 42.44045 147.54059 40820 ft 406 kts 227°
2026-05-08 02:58 42.39988 147.48738 40814 ft 405 kts 227°
2026-05-08 02:58 42.35961 147.43464 40813 ft 405 kts 227°
2026-05-08 02:59 42.31908 147.38154 40816 ft 405 kts 227°
2026-05-08 02:59 42.27880 147.32888 40813 ft 405 kts 227°
2026-05-08 03:00 42.23825 147.27596 40814 ft 405 kts 227°
2026-05-08 03:00 42.19770 147.22317 40818 ft 405 kts 227°
2026-05-08 03:01 42.15714 147.17046 40817 ft 405 kts 227°
2026-05-08 03:01 42.11677 147.11809 40825 ft 404 kts 227°
2026-05-08 03:02 42.07613 147.06549 40813 ft 404 kts 227°
2026-05-08 03:02 42.03581 147.01338 40817 ft 403 kts 227°
2026-05-08 03:03 41.99518 146.96098 40810 ft 403 kts 227°
2026-05-08 03:03 41.95463 146.90876 40819 ft 403 kts 227°
2026-05-08 03:04 41.91426 146.85689 40813 ft 402 kts 226°
2026-05-08 03:04 41.87382 146.80493 40794 ft 402 kts 227°
2026-05-08 03:05 41.83339 146.75301 40808 ft 406 kts 227°
2026-05-08 03:05 41.79253 146.70066 40811 ft 405 kts 226°
2026-05-08 03:06 41.75164 146.64839 40810 ft 405 kts 226°
2026-05-08 03:06 41.71107 146.59663 40825 ft 405 kts 226°
2026-05-08 03:07 41.67039 146.54481 40813 ft 405 kts 226°
2026-05-08 03:07 41.62949 146.49281 40828 ft 405 kts 226°
2026-05-08 03:08 41.58861 146.44093 40827 ft 404 kts 226°
2026-05-08 03:08 41.54800 146.38950 40828 ft 404 kts 226°
2026-05-08 03:09 41.50707 146.33775 40818 ft 405 kts 226°
2026-05-08 03:09 41.46602 146.28593 40820 ft 406 kts 226°
2026-05-08 03:10 41.42494 146.23418 40821 ft 406 kts 226°
2026-05-08 03:10 41.38406 146.18277 40824 ft 406 kts 226°
2026-05-08 03:11 41.34288 146.13109 40828 ft 406 kts 226°
2026-05-08 03:11 41.30179 146.07960 40827 ft 405 kts 226°
2026-05-08 03:12 41.26092 146.02848 40826 ft 405 kts 226°
2026-05-08 03:12 41.21995 145.97735 40827 ft 405 kts 226°
2026-05-08 03:13 41.17886 145.92614 40808 ft 405 kts 225°
2026-05-08 03:13 41.13760 145.87481 40824 ft 406 kts 225°
2026-05-08 03:14 41.09622 145.82343 40829 ft 407 kts 225°
2026-05-08 03:14 41.05514 145.77252 40826 ft 407 kts 225°
2026-05-08 03:15 41.01377 145.72135 40827 ft 406 kts 225°
2026-05-08 03:15 40.97242 145.67028 40823 ft 406 kts 225°
2026-05-08 03:16 40.93108 145.61932 40824 ft 405 kts 225°
2026-05-08 03:16 40.89003 145.56881 40823 ft 405 kts 225°
2026-05-08 03:17 40.84868 145.51801 40824 ft 405 kts 225°
2026-05-08 03:17 40.80724 145.46719 40824 ft 407 kts 225°
2026-05-08 03:18 40.76582 145.41649 40820 ft 408 kts 225°
2026-05-08 03:18 40.72414 145.36556 40820 ft 408 kts 225°
2026-05-08 03:19 40.68236 145.31462 40820 ft 408 kts 225°
2026-05-08 03:19 40.64082 145.26404 40820 ft 408 kts 225°
2026-05-08 03:20 40.59905 145.21328 40821 ft 408 kts 225°
2026-05-08 03:20 40.55752 145.16290 40820 ft 408 kts 225°
2026-05-08 03:21 40.51570 145.11226 40819 ft 407 kts 225°
2026-05-08 03:21 40.47390 145.06174 40818 ft 409 kts 225°
2026-05-08 03:22 40.43278 145.01072 40820 ft 409 kts 229°
2026-05-08 03:22 40.39863 144.95114 40817 ft 407 kts 237°
2026-05-08 03:23 40.36863 144.88794 40819 ft 407 kts 238°
2026-05-08 03:23 40.33948 144.82463 40818 ft 407 kts 238°
2026-05-08 03:24 40.31006 144.76104 40818 ft 407 kts 238°
2026-05-08 03:24 40.28049 144.69765 40818 ft 407 kts 238°
2026-05-08 03:25 40.25102 144.63478 40818 ft 407 kts 238°
2026-05-08 03:25 40.22134 144.57162 40818 ft 407 kts 238°
2026-05-08 03:26 40.19167 144.50857 40818 ft 407 kts 238°
2026-05-08 03:26 40.16215 144.44595 40818 ft 406 kts 238°
2026-05-08 03:27 40.13244 144.38307 40815 ft 406 kts 238°
2026-05-08 03:27 40.10267 144.32019 40815 ft 406 kts 238°
2026-05-08 03:28 40.07311 144.25786 40816 ft 406 kts 238°
2026-05-08 03:28 40.04334 144.19524 40815 ft 405 kts 238°
2026-05-08 03:29 40.01359 144.13277 40812 ft 405 kts 237°
2026-05-08 03:29 39.98395 144.07067 40813 ft 405 kts 237°
2026-05-08 03:30 39.93927 143.97726 40815 ft 404 kts 237°
2026-05-08 03:31 39.87959 143.85294 40812 ft 404 kts 237°
2026-05-08 03:32 39.83499 143.76036 40809 ft 404 kts 237°
2026-05-08 03:32 39.80506 143.69839 40810 ft 405 kts 237°
2026-05-08 03:33 39.77499 143.63623 40809 ft 405 kts 237°
2026-05-08 03:33 39.74513 143.57465 40808 ft 405 kts 237°
2026-05-08 03:34 39.71504 143.51270 40806 ft 405 kts 237°
2026-05-08 03:34 39.68490 143.45079 40807 ft 405 kts 237°
2026-05-08 03:35 39.65474 143.38893 40808 ft 405 kts 237°
2026-05-08 03:35 39.62459 143.32724 40809 ft 404 kts 237°
2026-05-08 03:36 39.59444 143.26566 40807 ft 404 kts 237°
2026-05-08 03:36 39.56443 143.20447 40807 ft 404 kts 237°
2026-05-08 03:37 39.53415 143.14286 40805 ft 404 kts 237°
2026-05-08 03:37 39.50411 143.08187 40801 ft 404 kts 237°
2026-05-08 03:38 39.47384 143.02051 40801 ft 404 kts 237°
2026-05-08 03:38 39.44352 142.95919 40801 ft 404 kts 237°
2026-05-08 03:39 39.41333 142.89824 40801 ft 404 kts 237°
2026-05-08 03:39 39.38298 142.83707 40801 ft 404 kts 237°
2026-05-08 03:40 39.35253 142.77584 40798 ft 404 kts 237°
2026-05-08 03:40 39.32230 142.71515 40799 ft 404 kts 237°
2026-05-08 03:41 39.29185 142.65414 40791 ft 404 kts 237°
2026-05-08 03:41 39.26130 142.59306 40790 ft 405 kts 237°
2026-05-08 03:42 39.22987 142.53275 40794 ft 405 kts 232°
2026-05-08 03:42 39.19431 142.47685 40786 ft 405 kts 230°
2026-05-08 03:43 39.15765 142.42148 40792 ft 406 kts 230°
2026-05-08 03:43 39.12700 142.37554 40792 ft 406 kts 230°
2026-05-08 03:44 39.08423 142.31141 40784 ft 405 kts 230°
2026-05-08 03:44 39.05364 142.26551 40784 ft 406 kts 230°
2026-05-08 03:45 39.01677 142.21023 40780 ft 406 kts 230°
2026-05-08 03:45 38.97989 142.15504 40776 ft 406 kts 230°
2026-05-08 03:46 38.94294 142.09985 40792 ft 406 kts 230°
2026-05-08 03:46 38.90627 142.04517 40778 ft 406 kts 230°
2026-05-08 03:47 38.86929 141.99013 40775 ft 406 kts 230°
2026-05-08 03:47 38.83230 141.93516 40774 ft 406 kts 230°
2026-05-08 03:48 38.79547 141.88053 40775 ft 406 kts 230°
2026-05-08 03:48 38.75842 141.82566 40774 ft 406 kts 230°
2026-05-08 03:49 38.72161 141.77124 40773 ft 406 kts 230°
2026-05-08 03:49 38.68457 141.71659 40770 ft 406 kts 230°
2026-05-08 03:50 38.64741 141.66183 40771 ft 407 kts 230°
2026-05-08 03:50 38.61024 141.60716 40776 ft 407 kts 230°
2026-05-08 03:51 38.57298 141.55247 40777 ft 407 kts 230°
2026-05-08 03:51 38.53598 141.49824 40776 ft 406 kts 230°
2026-05-08 03:52 38.49869 141.44374 40778 ft 406 kts 230°
2026-05-08 03:52 38.46175 141.38961 40773 ft 406 kts 230°
2026-05-08 03:53 38.42449 141.33530 40767 ft 405 kts 230°
2026-05-08 03:53 38.38761 141.28170 40770 ft 404 kts 230°
2026-05-08 03:54 38.35057 141.22789 40773 ft 404 kts 230°
2026-05-08 03:54 38.31338 141.17393 40773 ft 404 kts 230°
2026-05-08 03:55 38.27626 141.12017 40768 ft 404 kts 230°
2026-05-08 03:55 38.23928 141.06670 40769 ft 406 kts 230°
2026-05-08 03:56 38.20195 141.01282 40777 ft 407 kts 230°
2026-05-08 03:56 38.16618 140.95730 40775 ft 405 kts 237°
2026-05-08 03:57 38.14079 140.89360 40773 ft 406 kts 249°
2026-05-08 03:57 38.12888 140.82307 40773 ft 410 kts 258°
2026-05-08 03:58 38.12210 140.75141 40770 ft 411 kts 259°
2026-05-08 03:58 38.11582 140.67908 40772 ft 410 kts 259°
2026-05-08 03:59 38.10932 140.60749 40753 ft 410 kts 259°
2026-05-08 03:59 38.10215 140.53561 40757 ft 409 kts 258°
2026-05-08 04:00 38.09438 140.46433 40769 ft 409 kts 258°
2026-05-08 04:00 38.08665 140.39268 40766 ft 409 kts 257°
2026-05-08 04:01 38.07901 140.32135 40761 ft 411 kts 257°
2026-05-08 04:01 38.07152 140.24926 40758 ft 412 kts 258°
2026-05-08 04:02 38.06495 140.17679 40757 ft 412 kts 259°
2026-05-08 04:02 38.05846 140.10441 40784 ft 413 kts 258°
2026-05-08 04:03 38.05184 140.03247 40762 ft 412 kts 258°
2026-05-08 04:03 38.04166 139.92410 40768 ft 412 kts 258°
2026-05-08 04:04 38.03485 139.85232 40775 ft 411 kts 258°
2026-05-08 04:04 38.02796 139.78017 40772 ft 411 kts 258°
2026-05-08 04:05 38.02077 139.70819 40783 ft 411 kts 258°
2026-05-08 04:05 38.01304 139.63659 40766 ft 412 kts 257°
2026-05-08 04:06 38.00514 139.56444 40785 ft 413 kts 257°
2026-05-08 04:06 37.99733 139.49260 40821 ft 412 kts 257°
2026-05-08 04:07 37.98949 139.42040 40786 ft 413 kts 257°
2026-05-08 04:07 37.98207 139.34837 40785 ft 413 kts 258°
2026-05-08 04:08 37.97481 139.27598 40785 ft 413 kts 258°
2026-05-08 04:08 37.96748 139.20370 40774 ft 413 kts 258°
2026-05-08 04:09 37.95892 139.13167 40775 ft 410 kts 253°
2026-05-08 04:09 37.94079 139.06401 40771 ft 406 kts 245°
2026-05-08 04:10 37.91853 138.99822 40774 ft 405 kts 244°
2026-05-08 04:10 37.89571 138.93319 40776 ft 405 kts 244°
2026-05-08 04:11 37.87282 138.86786 40781 ft 405 kts 244°
2026-05-08 04:11 37.85002 138.80250 40782 ft 405 kts 244°
2026-05-08 04:12 37.82736 138.73753 40790 ft 405 kts 244°
2026-05-08 04:12 37.80453 138.67215 40791 ft 405 kts 244°
2026-05-08 04:13 37.78164 138.60681 40788 ft 405 kts 244°
2026-05-08 04:13 37.75887 138.54194 40792 ft 405 kts 244°
2026-05-08 04:14 37.73606 138.47710 40793 ft 405 kts 244°
2026-05-08 04:14 37.71313 138.41205 40793 ft 405 kts 244°
2026-05-08 04:15 37.69020 138.34702 40794 ft 404 kts 244°
2026-05-08 04:15 37.66733 138.28244 40796 ft 404 kts 244°
2026-05-08 04:16 37.64430 138.21756 40796 ft 404 kts 244°
2026-05-08 04:16 37.62120 138.15258 40793 ft 404 kts 244°
2026-05-08 04:17 37.59832 138.08832 40795 ft 403 kts 244°
2026-05-08 04:17 37.57528 138.02378 40792 ft 403 kts 244°
2026-05-08 04:18 37.55220 137.95925 40787 ft 403 kts 244°
2026-05-08 04:18 37.52923 137.89518 40788 ft 403 kts 244°
2026-05-08 04:19 37.50608 137.83075 40782 ft 403 kts 244°
2026-05-08 04:19 37.48290 137.76636 40780 ft 403 kts 244°
2026-05-08 04:20 37.45984 137.70243 40785 ft 403 kts 244°
2026-05-08 04:20 37.43663 137.63822 40776 ft 403 kts 244°
2026-05-08 04:21 37.41336 137.57401 40778 ft 402 kts 244°
2026-05-08 04:21 37.39023 137.51028 40781 ft 402 kts 244°
2026-05-08 04:22 37.36708 137.44666 40775 ft 402 kts 244°
2026-05-08 04:22 37.34374 137.38264 40783 ft 401 kts 244°
2026-05-08 04:23 37.32058 137.31925 40780 ft 400 kts 244°
2026-05-08 04:23 37.29727 137.25558 40792 ft 400 kts 244°
2026-05-08 04:24 37.27392 137.19193 40795 ft 400 kts 244°
2026-05-08 04:24 37.25071 137.12880 40779 ft 400 kts 244°
2026-05-08 04:25 37.22727 137.06517 40789 ft 400 kts 244°
2026-05-08 04:25 37.20399 137.00211 40787 ft 400 kts 244°
2026-05-08 04:26 37.18065 136.93902 40783 ft 400 kts 244°
2026-05-08 04:26 37.15716 136.87563 40805 ft 400 kts 244°
2026-05-08 04:27 37.13363 136.81229 40803 ft 400 kts 244°
2026-05-08 04:27 37.11018 136.74927 40789 ft 400 kts 244°
2026-05-08 04:28 37.08672 136.68631 40797 ft 400 kts 244°
2026-05-08 04:28 37.06309 136.62306 40803 ft 400 kts 244°
2026-05-08 04:29 37.03942 136.55989 40799 ft 400 kts 244°
2026-05-08 04:29 37.01575 136.49681 40798 ft 400 kts 244°
2026-05-08 04:30 36.99208 136.43384 40798 ft 400 kts 244°
2026-05-08 04:30 36.96849 136.37122 40805 ft 399 kts 244°
2026-05-08 04:31 36.94480 136.30844 40801 ft 399 kts 244°
2026-05-08 04:31 36.92500 136.25610 40797 ft 399 kts 244°
2026-05-08 04:32 36.90131 136.19355 40801 ft 399 kts 244°
2026-05-08 04:32 36.87745 136.13071 40795 ft 399 kts 244°
2026-05-08 04:33 36.85355 136.06787 40797 ft 399 kts 244°
2026-05-08 04:33 36.82981 136.00557 40806 ft 399 kts 244°
2026-05-08 04:34 36.80590 135.94296 40816 ft 399 kts 244°
2026-05-08 04:34 36.78206 135.88065 40805 ft 399 kts 244°
2026-05-08 04:35 36.75806 135.81805 40803 ft 399 kts 244°
2026-05-08 04:35 36.73403 135.75551 40813 ft 397 kts 244°
2026-05-08 04:36 36.71034 135.69395 40813 ft 395 kts 244°
2026-05-08 04:36 36.68648 135.63209 40815 ft 395 kts 244°
2026-05-08 04:37 36.66258 135.57023 40810 ft 395 kts 244°
2026-05-08 04:37 36.63884 135.50894 40811 ft 395 kts 244°
2026-05-08 04:38 36.61495 135.44734 40814 ft 395 kts 244°
2026-05-08 04:38 36.59119 135.38621 40814 ft 395 kts 244°
2026-05-08 04:39 36.56718 135.32455 40824 ft 394 kts 244°
2026-05-08 04:39 36.54334 135.26346 40818 ft 394 kts 244°
2026-05-08 04:40 36.51935 135.20209 40818 ft 394 kts 244°
2026-05-08 04:40 36.49530 135.14070 40808 ft 394 kts 244°
2026-05-08 04:41 36.47141 135.07984 40826 ft 394 kts 244°
2026-05-08 04:41 36.44736 135.01866 40826 ft 394 kts 244°
2026-05-08 04:42 36.42327 134.95752 40832 ft 393 kts 244°
2026-05-08 04:42 36.39919 134.89651 40834 ft 393 kts 244°
2026-05-08 04:43 36.37520 134.83584 40840 ft 393 kts 244°
2026-05-08 04:43 36.35104 134.77487 40840 ft 393 kts 244°
2026-05-08 04:44 36.32702 134.71436 40843 ft 393 kts 244°
2026-05-08 04:44 36.30282 134.65354 40846 ft 393 kts 244°
2026-05-08 04:45 36.27858 134.59270 40845 ft 393 kts 244°
2026-05-08 04:45 36.25437 134.53206 40851 ft 392 kts 244°
2026-05-08 04:46 36.22793 134.47327 40850 ft 393 kts 240°
2026-05-08 04:46 36.19945 134.41523 40854 ft 393 kts 240°
2026-05-08 04:47 36.17085 134.35783 40856 ft 393 kts 240°
2026-05-08 04:47 36.14214 134.30027 40861 ft 393 kts 240°
2026-05-08 04:48 36.11362 134.24309 40869 ft 393 kts 240°
2026-05-08 04:48 36.08491 134.18552 40868 ft 393 kts 240°
2026-05-08 04:49 36.05619 134.12805 40869 ft 393 kts 240°
2026-05-08 04:49 36.02756 134.07088 40875 ft 393 kts 240°
2026-05-08 04:50 35.99871 134.01334 40875 ft 393 kts 240°
2026-05-08 04:50 35.97359 133.95344 40875 ft 392 kts 249°
2026-05-08 04:51 35.96068 133.88818 40879 ft 395 kts 261°
2026-05-08 04:51 35.95729 133.82054 40881 ft 397 kts 264°
2026-05-08 04:52 35.95552 133.75242 40887 ft 397 kts 264°
2026-05-08 04:52 35.95374 133.68409 40885 ft 397 kts 264°
2026-05-08 04:53 35.95169 133.61583 40885 ft 397 kts 264°
2026-05-08 04:53 35.94949 133.54803 40887 ft 397 kts 264°
2026-05-08 04:54 35.94722 133.47989 40888 ft 397 kts 264°
2026-05-08 04:54 35.94493 133.41186 40906 ft 397 kts 264°
2026-05-08 04:55 35.94262 133.34418 40888 ft 397 kts 264°
2026-05-08 04:55 35.94026 133.27601 40894 ft 397 kts 264°
2026-05-08 04:56 35.93789 133.20858 40901 ft 397 kts 264°
2026-05-08 04:56 35.93544 133.14034 40882 ft 398 kts 264°
2026-05-08 04:57 35.93295 133.07198 40902 ft 397 kts 264°
2026-05-08 04:57 35.93046 133.00436 40918 ft 397 kts 264°
2026-05-08 04:58 35.92790 132.93614 40907 ft 398 kts 264°
2026-05-08 04:58 35.92530 132.86793 40909 ft 398 kts 264°
2026-05-08 04:59 35.92267 132.79993 40907 ft 398 kts 264°
2026-05-08 04:59 35.92000 132.73168 40904 ft 398 kts 264°
2026-05-08 05:00 35.91730 132.66372 40914 ft 397 kts 264°
2026-05-08 05:00 35.91455 132.59567 40936 ft 396 kts 264°
2026-05-08 05:01 35.91175 132.52746 40906 ft 397 kts 264°
2026-05-08 05:01 35.90895 132.45981 40908 ft 398 kts 264°
2026-05-08 05:02 35.90608 132.39161 40928 ft 398 kts 264°
2026-05-08 05:02 35.90317 132.32334 40923 ft 398 kts 264°
2026-05-08 05:03 35.90022 132.25498 40927 ft 398 kts 264°
2026-05-08 05:03 35.89725 132.18710 40938 ft 398 kts 264°
2026-05-08 05:04 35.89421 132.11856 40922 ft 399 kts 264°
2026-05-08 05:04 35.89116 132.05054 40921 ft 400 kts 264°
2026-05-08 05:05 35.88804 131.98200 40951 ft 400 kts 264°
2026-05-08 05:05 35.88489 131.91348 40920 ft 399 kts 264°
2026-05-08 05:06 35.88172 131.84539 40926 ft 399 kts 264°
2026-05-08 05:06 35.87849 131.77705 40928 ft 399 kts 264°
2026-05-08 05:07 35.87522 131.70861 40926 ft 400 kts 264°
2026-05-08 05:07 35.87191 131.64010 40931 ft 400 kts 264°
2026-05-08 05:08 35.86858 131.57194 40886 ft 400 kts 264°
2026-05-08 05:08 35.86520 131.50347 40931 ft 399 kts 264°
2026-05-08 05:09 35.86178 131.43508 40932 ft 399 kts 264°
2026-05-08 05:09 35.85834 131.36710 40927 ft 399 kts 264°
2026-05-08 05:10 35.85306 131.26442 40935 ft 400 kts 265°
2026-05-08 05:11 35.84951 131.19617 40932 ft 400 kts 265°
2026-05-08 05:11 35.84591 131.12758 40947 ft 400 kts 265°
2026-05-08 05:12 35.84226 131.05908 40932 ft 401 kts 265°
2026-05-08 05:12 35.83860 130.99097 40932 ft 401 kts 265°
2026-05-08 05:13 35.83488 130.92229 40934 ft 401 kts 265°
2026-05-08 05:13 35.83111 130.85373 40936 ft 401 kts 265°
2026-05-08 05:14 35.82732 130.78539 40936 ft 401 kts 265°
2026-05-08 05:14 35.82615 130.71657 40935 ft 402 kts 272°
2026-05-08 05:15 35.83320 130.64835 40934 ft 403 kts 275°
2026-05-08 05:15 35.84190 130.57988 40935 ft 403 kts 276°
2026-05-08 05:16 35.85078 130.51159 40936 ft 403 kts 275°
2026-05-08 05:16 35.85944 130.44371 40943 ft 403 kts 276°
2026-05-08 05:17 35.86803 130.37541 40938 ft 402 kts 275°
2026-05-08 05:17 35.87653 130.30725 40939 ft 402 kts 275°
2026-05-08 05:18 35.88495 130.23944 40959 ft 402 kts 276°
2026-05-08 05:18 35.89338 130.17131 40935 ft 401 kts 276°
2026-05-08 05:19 35.90177 130.10316 40920 ft 401 kts 275°
2026-05-08 05:19 35.91005 130.03563 40939 ft 399 kts 275°
2026-05-08 05:20 35.91692 129.97925 40934 ft 398 kts 275°
2026-05-08 05:20 35.92513 129.91161 40932 ft 398 kts 275°
2026-05-08 05:21 35.93330 129.84402 40934 ft 398 kts 275°
2026-05-08 05:21 35.94141 129.77695 40949 ft 397 kts 276°
2026-05-08 05:22 35.94946 129.70956 40934 ft 395 kts 276°
2026-05-08 05:22 35.95739 129.64282 40926 ft 394 kts 276°
2026-05-08 05:23 35.96527 129.57617 40948 ft 394 kts 276°
2026-05-08 05:23 35.97485 129.50939 40933 ft 396 kts 281°
2026-05-08 05:24 35.99542 129.44621 40926 ft 405 kts 293°
2026-05-08 05:24 36.02668 129.38765 40928 ft 410 kts 298°
2026-05-08 05:25 36.06005 129.33028 40933 ft 411 kts 298°
2026-05-08 05:25 36.09350 129.27306 40924 ft 413 kts 298°
2026-05-08 05:26 36.12715 129.21496 40936 ft 414 kts 298°
2026-05-08 05:26 36.16034 129.15725 40920 ft 414 kts 298°
2026-05-08 05:27 36.19365 129.09920 40932 ft 414 kts 298°
2026-05-08 05:27 36.22689 129.04109 40926 ft 414 kts 298°
2026-05-08 05:28 36.26027 128.98268 40932 ft 414 kts 298°
2026-05-08 05:28 36.27698 128.95344 40829 ft 415 kts 298°
2026-05-08 05:28 36.29366 128.92422 40455 ft 414 kts 298°
2026-05-08 05:28 36.31007 128.89547 39984 ft 414 kts 298°
2026-05-08 05:29 36.32670 128.86620 39516 ft 413 kts 298°
2026-05-08 05:29 36.34328 128.83709 39051 ft 413 kts 298°
2026-05-08 05:29 36.35993 128.80790 38584 ft 414 kts 298°
2026-05-08 05:29 36.37655 128.77867 38028 ft 413 kts 297°
2026-05-08 05:30 36.39307 128.74953 37467 ft 413 kts 297°
2026-05-08 05:30 36.40958 128.72037 36931 ft 412 kts 297°
2026-05-08 05:30 36.42606 128.69126 36391 ft 410 kts 297°
2026-05-08 05:30 36.44244 128.66234 35885 ft 409 kts 297°
2026-05-08 05:31 36.45859 128.63381 35388 ft 407 kts 297°
2026-05-08 05:31 36.47487 128.60502 34903 ft 406 kts 297°
2026-05-08 05:31 36.49117 128.57620 34408 ft 404 kts 297°
2026-05-08 05:31 36.50725 128.54773 33933 ft 400 kts 297°
2026-05-08 05:32 36.52313 128.51962 33379 ft 394 kts 297°
2026-05-08 05:32 36.53858 128.49230 32901 ft 389 kts 297°
2026-05-08 05:32 36.55403 128.46485 32361 ft 386 kts 297°
2026-05-08 05:32 36.56929 128.43766 31832 ft 384 kts 297°
2026-05-08 05:33 36.58459 128.41035 31339 ft 380 kts 297°
2026-05-08 05:33 36.59965 128.38349 30872 ft 377 kts 297°
2026-05-08 05:33 36.61460 128.35684 30431 ft 373 kts 297°
2026-05-08 05:33 36.62925 128.33071 29965 ft 370 kts 297°
2026-05-08 05:34 36.64393 128.30461 29447 ft 366 kts 297°
2026-05-08 05:34 36.65865 128.27870 28918 ft 363 kts 298°
2026-05-08 05:34 36.67324 128.25315 28401 ft 360 kts 298°
2026-05-08 05:34 36.68776 128.22778 27916 ft 357 kts 298°
2026-05-08 05:35 36.70192 128.20300 27414 ft 353 kts 298°
2026-05-08 05:35 36.71609 128.17819 26970 ft 350 kts 299°
2026-05-08 05:35 36.73028 128.15351 26533 ft 348 kts 299°
2026-05-08 05:35 36.74425 128.12901 26086 ft 344 kts 299°
2026-05-08 05:36 36.75801 128.10473 25618 ft 340 kts 299°
2026-05-08 05:36 36.77158 128.08071 25215 ft 337 kts 299°
2026-05-08 05:36 36.78491 128.05701 24807 ft 335 kts 300°
2026-05-08 05:36 36.79822 128.03334 24403 ft 332 kts 300°
2026-05-08 05:37 36.81148 128.00978 24031 ft 330 kts 300°
2026-05-08 05:37 36.82465 127.98642 23653 ft 328 kts 300°
2026-05-08 05:37 36.83772 127.96319 23263 ft 325 kts 301°
2026-05-08 05:37 36.85063 127.94043 22853 ft 324 kts 302°
2026-05-08 05:38 36.86364 127.91754 22420 ft 322 kts 302°
2026-05-08 05:38 36.87654 127.89471 21990 ft 321 kts 302°
2026-05-08 05:38 36.88947 127.87199 21560 ft 319 kts 301°
2026-05-08 05:38 36.90220 127.84924 21158 ft 319 kts 302°
2026-05-08 05:39 36.91470 127.82680 20747 ft 316 kts 302°
2026-05-08 05:39 36.92733 127.80422 20343 ft 314 kts 302°
2026-05-08 05:39 36.93973 127.78221 19947 ft 314 kts 303°
2026-05-08 05:39 36.95229 127.75992 19565 ft 312 kts 303°
2026-05-08 05:40 36.96475 127.73771 19171 ft 310 kts 303°
2026-05-08 05:40 36.97712 127.71564 18776 ft 307 kts 304°
2026-05-08 05:40 36.98933 127.69390 18400 ft 301 kts 304°
2026-05-08 05:40 37.00125 127.67266 17975 ft 296 kts 304°
2026-05-08 05:41 37.01289 127.65192 17559 ft 293 kts 304°
2026-05-08 05:41 37.02459 127.63110 17127 ft 291 kts 305°
2026-05-08 05:41 37.03622 127.61041 16700 ft 289 kts 304°
2026-05-08 05:41 37.04775 127.58978 16295 ft 288 kts 304°
2026-05-08 05:42 37.05905 127.56948 15885 ft 286 kts 304°
2026-05-08 05:42 37.07045 127.54905 15484 ft 285 kts 305°
2026-05-08 05:42 37.08178 127.52872 15076 ft 283 kts 305°
2026-05-08 05:42 37.09303 127.50853 14695 ft 282 kts 305°
2026-05-08 05:43 37.10423 127.48841 14298 ft 280 kts 305°
2026-05-08 05:43 37.11536 127.46840 13923 ft 280 kts 306°
2026-05-08 05:43 37.12650 127.44840 13520 ft 279 kts 306°
2026-05-08 05:43 37.13764 127.42849 13074 ft 278 kts 306°
2026-05-08 05:44 37.14834 127.40919 12652 ft 260 kts 305°
2026-05-08 05:44 37.15825 127.39133 12222 ft 247 kts 305°
2026-05-08 05:44 37.16812 127.37355 11827 ft 249 kts 305°
2026-05-08 05:44 37.17796 127.35569 11417 ft 248 kts 304°
2026-05-08 05:45 37.18597 127.33638 11009 ft 250 kts 293°
2026-05-08 05:45 37.18971 127.31492 10624 ft 256 kts 278°
2026-05-08 05:45 37.18975 127.29239 10232 ft 260 kts 272°
2026-05-08 05:45 37.18884 127.26966 9929 ft 262 kts 271°
2026-05-08 05:46 37.18779 127.24709 9687 ft 261 kts 272°
2026-05-08 05:46 37.18665 127.22450 9409 ft 258 kts 272°
2026-05-08 05:46 37.18553 127.20224 9190 ft 254 kts 273°
2026-05-08 05:46 37.18443 127.18018 8938 ft 253 kts 273°
2026-05-08 05:47 37.18333 127.15811 8684 ft 252 kts 273°
2026-05-08 05:47 37.18221 127.13618 8484 ft 252 kts 273°
2026-05-08 05:47 37.18112 127.11456 8251 ft 251 kts 273°
2026-05-08 05:47 37.18002 127.09277 8020 ft 250 kts 273°
2026-05-08 05:48 37.17893 127.07111 7784 ft 249 kts 272°
2026-05-08 05:48 37.17782 127.04939 7561 ft 249 kts 272°
2026-05-08 05:48 37.17673 127.02768 7338 ft 248 kts 273°
2026-05-08 05:48 37.17562 127.00644 7096 ft 239 kts 272°
2026-05-08 05:49 37.17453 126.98598 6985 ft 235 kts 273°
2026-05-08 05:49 37.17349 126.96574 6988 ft 236 kts 273°
2026-05-08 05:49 37.17243 126.94518 6983 ft 235 kts 273°
2026-05-08 05:49 37.17135 126.92469 6984 ft 235 kts 274°
2026-05-08 05:50 37.17026 126.90418 6975 ft 235 kts 273°
2026-05-08 05:50 37.16920 126.88375 6988 ft 234 kts 273°
2026-05-08 05:50 37.16818 126.86341 6985 ft 234 kts 273°
2026-05-08 05:50 37.16718 126.84324 6986 ft 235 kts 273°
2026-05-08 05:51 37.16609 126.82285 6986 ft 233 kts 272°
2026-05-08 05:51 37.16500 126.80315 6975 ft 219 kts 273°
2026-05-08 05:51 37.16394 126.78479 6966 ft 204 kts 272°
2026-05-08 05:51 37.16297 126.76716 6975 ft 201 kts 273°
2026-05-08 05:52 37.16265 126.74975 6978 ft 198 kts 279°
2026-05-08 05:52 37.16532 126.73312 6992 ft 193 kts 294°
2026-05-08 05:52 37.17209 126.71881 6943 ft 191 kts 313°
2026-05-08 05:52 37.18212 126.70788 6755 ft 190 kts 321°
2026-05-08 05:53 37.19269 126.69819 6391 ft 191 kts 322°
2026-05-08 05:53 37.20358 126.68852 6029 ft 192 kts 322°
2026-05-08 05:53 37.21469 126.67872 5586 ft 197 kts 323°
2026-05-08 05:53 37.22579 126.66892 5356 ft 192 kts 323°
2026-05-08 05:54 37.23661 126.65938 5094 ft 188 kts 323°
2026-05-08 05:54 37.24712 126.65016 4958 ft 180 kts 323°
2026-05-08 05:54 37.25734 126.64142 4552 ft 182 kts 323°
2026-05-08 05:54 37.26776 126.63229 4318 ft 184 kts 323°
2026-05-08 05:55 37.27828 126.62293 4235 ft 184 kts 323°
2026-05-08 05:55 37.28870 126.61367 4046 ft 183 kts 323°
2026-05-08 05:55 37.29913 126.60442 3832 ft 183 kts 323°
2026-05-08 05:55 37.30932 126.59539 3576 ft 176 kts 323°
2026-05-08 05:56 37.31916 126.58665 3337 ft 170 kts 323°
2026-05-08 05:56 37.32863 126.57824 3096 ft 163 kts 322°
2026-05-08 05:56 37.33781 126.57009 2875 ft 161 kts 322°
2026-05-08 05:56 37.34695 126.56197 2673 ft 160 kts 322°
2026-05-08 05:57 37.35592 126.55400 2455 ft 160 kts 322°
2026-05-08 05:57 37.36504 126.54590 2242 ft 160 kts 322°
2026-05-08 05:57 37.37404 126.53790 2022 ft 154 kts 322°
2026-05-08 05:57 37.38250 126.53040 1822 ft 145 kts 320°
2026-05-08 05:58 37.39048 126.52330 1632 ft 133 kts 320°
2026-05-08 05:58 37.39763 126.51693 1453 ft 120 kts 320°
2026-05-08 05:58 37.40438 126.51091 1299 ft 118 kts 319°
2026-05-08 05:58 37.41103 126.50495 1122 ft 119 kts 320°
2026-05-08 05:59 37.41791 126.49902 995 ft 120 kts 321°
2026-05-08 05:59 37.42473 126.49281 826 ft 122 kts 320°
2026-05-08 05:59 37.43167 126.48663 691 ft 123 kts 321°
2026-05-08 05:59 37.43885 126.48032 540 ft 128 kts 321°
2026-05-08 06:00 37.44607 126.47385 314 ft 125 kts 321°
2026-05-08 06:00 37.45318 126.46753 163 ft 125 kts 321°
2026-05-08 06:00 37.46020 126.46126 40 ft 124 kts 328°
2026-05-08 06:00 37.46646 126.45572 38 ft 94 kts 324°
2026-05-08 06:01 37.47101 126.45166 39 ft 69 kts 324°
2026-05-08 06:01 37.47440 126.44863 39 ft 46 kts 325°
2026-05-08 06:01 37.47649 126.44630 39 ft 38 kts 310°
2026-05-08 06:01 37.47748 126.44352 39 ft 31 kts 295°
2026-05-08 06:02 37.47751 126.44185 39 ft 19 kts 235°
2026-05-08 06:02 37.47671 126.44040 39 ft 21 kts 234°
2026-05-08 06:02 37.47578 126.43917 39 ft 15 kts 182°
2026-05-08 06:02 37.47486 126.43983 39 ft 17 kts 146°
2026-05-08 06:03 37.47384 126.44076 39 ft 20 kts 144°
2026-05-08 06:03 37.47263 126.44184 39 ft 23 kts 144°
2026-05-08 06:03 37.47125 126.44308 39 ft 26 kts 144°
2026-05-08 06:03 37.46970 126.44444 39 ft 28 kts 145°
2026-05-08 06:04 37.46822 126.44576 39 ft 21 kts 144°
2026-05-08 06:04 37.46702 126.44597 39 ft 19 kts 227°
2026-05-08 06:04 37.46626 126.44454 39 ft 21 kts 238°
2026-05-08 06:04 37.46544 126.44296 39 ft 22 kts 234°
2026-05-08 06:05 37.46461 126.44150 39 ft 21 kts 233°
2026-05-08 06:05 37.46447 126.44007 39 ft 17 kts 319°
2026-05-08 06:05 37.46545 126.43918 39 ft 17 kts 324°
2026-05-08 06:05 37.46634 126.43835 39 ft 15 kts 315°
2026-05-08 06:06 37.46670 126.43735 39 ft 11 kts 316°
2026-05-08 06:06 37.46713 126.43707 39 ft 4 kts 334°
2026-05-08 06:06 37.46728 126.43696 37 ft 1 kts 332°
2026-05-08 06:06 37.46730 126.43695 38 ft 0 kts 332°